Time,TemperatureF,DewpointF,PressureIn,WindDirection,WindDirectionDegrees,WindSpeedMPH,WindSpeedGustMPH,Humidity,HourlyPrecipIn,Conditions,Clouds,dailyrainin,SoftwareType,DateUTC
2013-01-02 00:00:00,56.8,55.1,30.05,SSW,209,0.0,0.0,94,0.00,,,0.00,Wunderground v.1.15,2013-01-02 05:00:00,
2013-01-02 00:02:00,56.9,55.5,30.05,SSW,209,0.0,0.0,95,0.00,,,0.00,Wunderground v.1.15,2013-01-02 05:02:00,
2013-01-02 00:05:00,57.3,56.2,30.05,SSW,209,0.0,0.0,96,0.00,,,0.00,Wunderground v.1.15,2013-01-02 05:05:00,
2013-01-02 00:06:00,57.4,56.3,30.05,SSW,209,0.0,0.0,96,0.00,,,0.00,Wunderground v.1.15,2013-01-02 05:06:00,
2013-01-02 00:08:00,57.4,56.3,30.05,SSW,209,0.0,0.0,96,0.00,,,0.00,Wunderground v.1.15,2013-01-02 05:08:00,
2013-01-02 00:11:00,57.5,56.1,30.05,SSW,209,0.0,0.0,95,0.00,,,0.00,Wunderground v.1.15,2013-01-02 05:11:00,
2013-01-02 00:12:00,57.5,56.1,30.05,SSW,209,0.0,0.0,95,0.00,,,0.00,Wunderground v.1.15,2013-01-02 05:12:00,
2013-01-02 00:15:00,57.4,56.0,30.04,SSW,209,0.0,0.0,95,0.00,,,0.00,Wunderground v.1.15,2013-01-02 05:15:00,
2013-01-02 00:21:00,57.4,56.0,30.04,SSW,209,0.0,0.0,95,0.00,,,0.00,Wunderground v.1.15,2013-01-02 05:21:00,
2013-01-02 00:22:00,57.4,56.0,30.04,SSW,209,0.0,0.0,95,0.00,,,0.00,Wunderground v.1.15,2013-01-02 05:22:00,
2013-01-02 00:23:00,57.4,56.0,30.04,SSW,209,0.0,0.0,95,0.00,,,0.00,Wunderground v.1.15,2013-01-02 05:23:00,
2013-01-02 00:25:00,57.3,55.9,30.04,SSW,209,0.0,0.0,95,0.00,,,0.00,Wunderground v.1.15,2013-01-02 05:25:00,
2013-01-02 00:26:00,57.3,55.9,30.04,SSW,209,0.0,0.0,95,0.00,,,0.00,Wunderground v.1.15,2013-01-02 05:26:00,
2013-01-02 00:29:00,57.2,55.8,30.04,SSW,209,0.0,0.0,95,0.00,,,0.00,Wunderground v.1.15,2013-01-02 05:29:00,
2013-01-02 00:30:00,57.2,55.8,30.04,SSW,209,0.0,0.0,95,0.00,,,0.00,Wunderground v.1.15,2013-01-02 05:30:00,
2013-01-02 00:33:00,57.2,56.1,30.04,SSW,209,0.0,0.0,96,0.00,,,0.00,Wunderground v.1.15,2013-01-02 05:33:00,
2013-01-02 00:34:00,57.2,56.1,30.04,SSW,209,0.0,0.0,96,0.00,,,0.00,Wunderground v.1.15,2013-01-02 05:34:00,
2013-01-02 00:39:00,57.3,56.2,30.04,SSW,209,0.0,0.0,96,0.00,,,0.00,Wunderground v.1.15,2013-01-02 05:39:00,
2013-01-02 00:40:00,57.3,56.2,30.04,SSW,209,0.0,0.0,96,0.00,,,0.00,Wunderground v.1.15,2013-01-02 05:40:00,
2013-01-02 00:41:00,57.3,56.2,30.04,SSW,209,0.0,0.0,96,0.00,,,0.00,Wunderground v.1.15,2013-01-02 05:41:00,
2013-01-02 00:45:00,57.3,56.2,30.04,SSW,209,0.0,0.0,96,0.00,,,0.00,Wunderground v.1.15,2013-01-02 05:45:00,
2013-01-02 00:47:00,57.3,56.2,30.04,SSW,209,0.0,0.0,96,0.00,,,0.00,Wunderground v.1.15,2013-01-02 05:47:00,
2013-01-02 00:51:00,57.6,56.8,30.03,SSW,209,0.0,0.0,97,0.00,,,0.00,Wunderground v.1.15,2013-01-02 05:51:00,
2013-01-02 00:52:00,57.8,57.0,30.04,SSW,209,0.0,0.0,97,0.00,,,0.00,Wunderground v.1.15,2013-01-02 05:52:00,
2013-01-02 00:55:00,58.0,57.2,30.03,SSW,209,0.0,0.0,97,0.00,,,0.00,Wunderground v.1.15,2013-01-02 05:55:00,
2013-01-02 00:58:00,58.0,56.9,30.04,SSW,209,0.0,0.0,96,0.00,,,0.00,Wunderground v.1.15,2013-01-02 05:58:00,
2013-01-02 01:00:00,57.9,56.8,30.04,SSW,209,0.0,0.0,96,0.00,,,0.00,Wunderground v.1.15,2013-01-02 06:00:00,
2013-01-02 01:03:00,57.9,56.8,30.04,SSW,209,0.0,0.0,96,0.00,,,0.00,Wunderground v.1.15,2013-01-02 06:03:00,
2013-01-02 01:04:00,57.9,56.8,30.04,SSW,209,0.0,0.0,96,0.00,,,0.00,Wunderground v.1.15,2013-01-02 06:04:00,
2013-01-02 01:06:00,58.2,57.4,30.03,SSW,209,0.0,0.0,97,0.00,,,0.00,Wunderground v.1.15,2013-01-02 06:06:00,
2013-01-02 01:07:00,58.3,57.5,30.03,SSW,209,0.0,0.0,97,0.00,,,0.00,Wunderground v.1.15,2013-01-02 06:07:00,
2013-01-02 01:13:00,58.7,57.9,30.03,SSW,209,0.0,0.0,97,0.00,,,0.00,Wunderground v.1.15,2013-01-02 06:13:00,
2013-01-02 01:14:00,58.7,57.9,30.03,SSW,209,0.0,0.0,97,0.00,,,0.00,Wunderground v.1.15,2013-01-02 06:14:00,
2013-01-02 01:19:00,58.7,57.9,30.03,SSW,209,0.0,0.0,97,0.00,,,0.00,Wunderground v.1.15,2013-01-02 06:19:00,
2013-01-02 01:20:00,58.7,57.9,30.03,SSW,209,0.0,0.0,97,0.00,,,0.00,Wunderground v.1.15,2013-01-02 06:20:00,
2013-01-02 01:24:00,58.8,58.0,30.03,SSW,209,0.0,0.0,97,0.00,,,0.00,Wunderground v.1.15,2013-01-02 06:24:00,
2013-01-02 01:26:00,58.7,57.9,30.03,SSW,209,0.0,0.0,97,0.00,,,0.00,Wunderground v.1.15,2013-01-02 06:26:00,
2013-01-02 01:27:00,58.7,57.9,30.03,SSW,209,0.0,0.0,97,0.00,,,0.00,Wunderground v.1.15,2013-01-02 06:27:00,
2013-01-02 01:30:00,58.7,57.9,30.03,SSW,209,0.0,0.0,97,0.00,,,0.00,Wunderground v.1.15,2013-01-02 06:30:00,
2013-01-02 01:32:00,58.7,57.9,30.03,SSW,209,0.0,0.0,97,0.00,,,0.00,Wunderground v.1.15,2013-01-02 06:32:00,
2013-01-02 01:36:00,58.7,57.9,30.04,SSW,209,0.0,0.0,97,0.00,,,0.00,Wunderground v.1.15,2013-01-02 06:36:00,
2013-01-02 01:37:00,58.7,57.9,30.04,SSW,209,0.0,0.0,97,0.00,,,0.00,Wunderground v.1.15,2013-01-02 06:37:00,
2013-01-02 01:41:00,58.8,58.0,30.03,SSW,209,0.0,0.0,97,0.00,,,0.00,Wunderground v.1.15,2013-01-02 06:41:00,
2013-01-02 01:42:00,58.8,58.0,30.04,SSW,209,0.0,0.0,97,0.00,,,0.00,Wunderground v.1.15,2013-01-02 06:42:00,
2013-01-02 01:45:00,59.0,58.2,30.03,SSW,209,0.0,0.0,97,0.00,,,0.00,Wunderground v.1.15,2013-01-02 06:45:00,
2013-01-02 01:47:00,59.1,58.2,30.03,SSW,209,0.0,0.0,97,0.00,,,0.00,Wunderground v.1.15,2013-01-02 06:47:00,
2013-01-02 01:48:00,59.1,58.2,30.03,SSW,209,0.0,0.0,97,0.00,,,0.00,Wunderground v.1.15,2013-01-02 06:48:00,
2013-01-02 01:54:00,59.3,58.4,30.03,SSW,209,0.0,0.0,97,0.00,,,0.00,Wunderground v.1.15,2013-01-02 06:54:00,
2013-01-02 01:57:00,59.5,58.6,30.03,SSW,209,0.0,0.0,97,0.00,,,0.00,Wunderground v.1.15,2013-01-02 06:57:00,
2013-01-02 01:58:00,59.5,58.6,30.03,SSW,209,0.0,0.0,97,0.00,,,0.00,Wunderground v.1.15,2013-01-02 06:58:00,
2013-01-02 02:01:00,59.6,58.7,30.03,SSW,209,0.0,0.0,97,0.00,,,0.00,Wunderground v.1.15,2013-01-02 07:01:00,
2013-01-02 02:02:00,59.6,58.7,30.03,SSW,209,0.0,0.0,97,0.00,,,0.00,Wunderground v.1.15,2013-01-02 07:02:00,
2013-01-02 02:03:00,59.6,58.7,30.03,SSW,209,0.0,0.0,97,0.00,,,0.00,Wunderground v.1.15,2013-01-02 07:03:00,
2013-01-02 02:06:00,59.7,58.8,30.03,SSW,209,0.0,0.0,97,0.00,,,0.00,Wunderground v.1.15,2013-01-02 07:06:00,
2013-01-02 02:07:00,59.7,58.8,30.03,SSW,209,0.0,0.0,97,0.00,,,0.00,Wunderground v.1.15,2013-01-02 07:07:00,
2013-01-02 02:08:00,59.7,58.8,30.03,SSW,209,0.0,0.0,97,0.00,,,0.00,Wunderground v.1.15,2013-01-02 07:08:00,
2013-01-02 02:11:00,59.7,58.8,30.03,SSW,209,0.0,0.0,97,0.00,,,0.00,Wunderground v.1.15,2013-01-02 07:11:00,
2013-01-02 02:12:00,59.8,58.9,30.03,SSW,209,0.0,0.0,97,0.00,,,0.00,Wunderground v.1.15,2013-01-02 07:12:00,
2013-01-02 02:13:00,59.8,58.9,30.03,SSW,209,0.0,0.0,97,0.00,,,0.00,Wunderground v.1.15,2013-01-02 07:13:00,
2013-01-02 02:16:00,59.8,58.9,30.03,SSW,209,0.0,0.0,97,0.00,,,0.00,Wunderground v.1.15,2013-01-02 07:16:00,
2013-01-02 02:17:00,59.9,59.0,30.03,SSW,209,0.0,0.0,97,0.00,,,0.00,Wunderground v.1.15,2013-01-02 07:17:00,
2013-01-02 02:18:00,59.9,59.0,30.03,SSW,209,0.0,0.0,97,0.00,,,0.00,Wunderground v.1.15,2013-01-02 07:18:00,
2013-01-02 02:21:00,60.0,59.1,30.03,SSW,209,0.0,0.0,97,0.00,,,0.00,Wunderground v.1.15,2013-01-02 07:21:00,
2013-01-02 02:22:00,60.1,59.2,30.03,SSW,209,0.0,0.0,97,0.00,,,0.00,Wunderground v.1.15,2013-01-02 07:22:00,
2013-01-02 02:23:00,60.1,59.2,30.03,SSW,209,0.0,0.0,97,0.00,,,0.00,Wunderground v.1.15,2013-01-02 07:23:00,
2013-01-02 02:26:00,60.1,59.2,30.03,SSW,209,0.0,0.0,97,0.00,,,0.00,Wunderground v.1.15,2013-01-02 07:26:00,
2013-01-02 02:28:00,60.1,59.2,30.02,SSW,209,0.0,0.0,97,0.00,,,0.00,Wunderground v.1.15,2013-01-02 07:28:00,
2013-01-02 02:31:00,60.2,59.3,30.03,SSW,209,0.0,0.0,97,0.00,,,0.00,Wunderground v.1.15,2013-01-02 07:31:00,
2013-01-02 02:33:00,60.2,59.3,30.02,SSW,209,0.0,0.0,97,0.00,,,0.00,Wunderground v.1.15,2013-01-02 07:33:00,
2013-01-02 02:36:00,60.3,59.4,30.03,SSW,209,0.0,0.0,97,0.00,,,0.00,Wunderground v.1.15,2013-01-02 07:36:00,
2013-01-02 02:38:00,60.3,59.4,30.03,SSW,209,0.0,0.0,97,0.00,,,0.00,Wunderground v.1.15,2013-01-02 07:38:00,
2013-01-02 02:41:00,60.1,59.2,30.03,SSW,209,0.0,0.0,97,0.00,,,0.00,Wunderground v.1.15,2013-01-02 07:41:00,
2013-01-02 02:42:00,60.1,59.2,30.03,SSW,209,0.0,0.0,97,0.00,,,0.00,Wunderground v.1.15,2013-01-02 07:42:00,
2013-01-02 02:43:00,60.1,59.2,30.03,SSW,209,0.0,0.0,97,0.00,,,0.00,Wunderground v.1.15,2013-01-02 07:43:00,
2013-01-02 02:47:00,60.0,58.9,30.03,SSW,209,0.0,0.0,96,0.00,,,0.00,Wunderground v.1.15,2013-01-02 07:47:00,
2013-01-02 02:48:00,60.0,58.9,30.03,SSW,209,0.0,0.0,96,0.00,,,0.00,Wunderground v.1.15,2013-01-02 07:48:00,
2013-01-02 02:49:00,59.9,58.8,30.03,SSW,209,0.0,0.0,96,0.00,,,0.00,Wunderground v.1.15,2013-01-02 07:49:00,
2013-01-02 02:52:00,59.8,58.7,30.03,SSW,209,0.0,0.0,96,0.00,,,0.00,Wunderground v.1.15,2013-01-02 07:52:00,
2013-01-02 02:53:00,59.7,58.6,30.03,SSW,209,0.0,0.0,96,0.00,,,0.00,Wunderground v.1.15,2013-01-02 07:53:00,
2013-01-02 02:54:00,59.7,58.6,30.03,SSW,209,0.0,0.0,96,0.00,,,0.00,Wunderground v.1.15,2013-01-02 07:54:00,
2013-01-02 02:57:00,59.8,58.9,30.03,SSW,209,0.0,0.0,97,0.00,,,0.00,Wunderground v.1.15,2013-01-02 07:57:00,
2013-01-02 02:58:00,59.9,59.0,30.03,SSW,209,0.0,0.0,97,0.00,,,0.00,Wunderground v.1.15,2013-01-02 07:58:00,
2013-01-02 02:59:00,59.9,59.0,30.03,SSW,209,0.0,0.0,97,0.00,,,0.00,Wunderground v.1.15,2013-01-02 07:59:00,
2013-01-02 03:02:00,59.9,59.0,30.03,SSW,209,0.0,0.0,97,0.00,,,0.00,Wunderground v.1.15,2013-01-02 08:02:00,
2013-01-02 03:03:00,60.0,59.1,30.03,SSW,209,0.0,0.0,97,0.00,,,0.00,Wunderground v.1.15,2013-01-02 08:03:00,
2013-01-02 03:04:00,60.0,59.1,30.03,SSW,209,0.0,0.0,97,0.00,,,0.00,Wunderground v.1.15,2013-01-02 08:04:00,
2013-01-02 03:07:00,60.0,59.1,30.03,SSW,209,0.0,0.0,97,0.00,,,0.00,Wunderground v.1.15,2013-01-02 08:07:00,
2013-01-02 03:08:00,60.0,59.1,30.03,SSW,209,0.0,0.0,97,0.00,,,0.00,Wunderground v.1.15,2013-01-02 08:08:00,
2013-01-02 03:09:00,60.0,59.1,30.03,SSW,209,0.0,0.0,97,0.00,,,0.00,Wunderground v.1.15,2013-01-02 08:09:00,
2013-01-02 03:12:00,60.1,59.2,30.03,SSW,209,0.0,0.0,97,0.00,,,0.00,Wunderground v.1.15,2013-01-02 08:12:00,
2013-01-02 03:13:00,60.2,59.3,30.03,SSW,209,0.0,0.0,97,0.00,,,0.00,Wunderground v.1.15,2013-01-02 08:13:00,
2013-01-02 03:14:00,60.2,59.3,30.03,SSW,209,0.0,0.0,97,0.00,,,0.00,Wunderground v.1.15,2013-01-02 08:14:00,
2013-01-02 03:17:00,60.3,59.4,30.03,SSW,209,0.0,0.0,97,0.00,,,0.00,Wunderground v.1.15,2013-01-02 08:17:00,
2013-01-02 03:19:00,60.3,59.4,30.03,SSW,209,0.0,0.0,97,0.00,,,0.00,Wunderground v.1.15,2013-01-02 08:19:00,
2013-01-02 03:20:00,60.3,59.4,30.03,SSW,209,0.0,0.0,97,0.00,,,0.00,Wunderground v.1.15,2013-01-02 08:20:00,
2013-01-02 03:22:00,60.4,59.5,30.03,SSW,209,0.0,0.0,97,0.00,,,0.00,Wunderground v.1.15,2013-01-02 08:22:00,
2013-01-02 03:24:00,60.4,59.8,30.03,SSW,209,0.0,0.0,98,0.00,,,0.00,Wunderground v.1.15,2013-01-02 08:24:00,
2013-01-02 03:25:00,60.5,59.9,30.02,SSW,209,0.0,0.0,98,0.00,,,0.00,Wunderground v.1.15,2013-01-02 08:25:00,
2013-01-02 03:28:00,60.5,59.9,30.02,SSW,209,0.0,0.0,98,0.00,,,0.00,Wunderground v.1.15,2013-01-02 08:28:00,
2013-01-02 03:29:00,60.5,59.9,30.02,SSW,209,0.0,0.0,98,0.00,,,0.00,Wunderground v.1.15,2013-01-02 08:29:00,
2013-01-02 03:30:00,60.6,60.0,30.02,SSW,209,0.0,0.0,98,0.00,,,0.00,Wunderground v.1.15,2013-01-02 08:30:00,
2013-01-02 03:33:00,60.7,60.1,30.02,SSW,209,0.0,0.0,98,0.00,,,0.00,Wunderground v.1.15,2013-01-02 08:33:00,
2013-01-02 03:34:00,60.7,60.1,30.02,SSW,209,0.0,0.0,98,0.00,,,0.00,Wunderground v.1.15,2013-01-02 08:34:00,
2013-01-02 03:35:00,60.8,60.2,30.02,SSW,209,0.0,0.0,98,0.00,,,0.00,Wunderground v.1.15,2013-01-02 08:35:00,
2013-01-02 03:38:00,60.9,60.3,30.02,SSW,209,0.0,0.0,98,0.00,,,0.00,Wunderground v.1.15,2013-01-02 08:38:00,
2013-01-02 03:39:00,60.9,60.3,30.03,SSW,209,0.0,0.0,98,0.00,,,0.00,Wunderground v.1.15,2013-01-02 08:39:00,
2013-01-02 03:40:00,60.9,60.3,30.02,SSW,209,0.0,0.0,98,0.00,,,0.00,Wunderground v.1.15,2013-01-02 08:40:00,
2013-01-02 03:43:00,60.9,60.3,30.03,SSW,210,0.0,0.0,98,0.00,,,0.00,Wunderground v.1.15,2013-01-02 08:43:00,
2013-01-02 03:44:00,60.9,60.3,30.02,SSW,210,0.0,0.0,98,0.00,,,0.00,Wunderground v.1.15,2013-01-02 08:44:00,
2013-01-02 03:45:00,60.8,60.2,30.03,SSW,210,0.0,0.0,98,0.00,,,0.00,Wunderground v.1.15,2013-01-02 08:45:00,
2013-01-02 03:49:00,60.5,59.6,30.03,SSW,210,0.0,0.0,97,0.00,,,0.00,Wunderground v.1.15,2013-01-02 08:49:00,
2013-01-02 03:50:00,60.5,59.6,30.03,SSW,210,0.0,0.0,97,0.00,,,0.00,Wunderground v.1.15,2013-01-02 08:50:00,
2013-01-02 03:54:00,60.5,59.6,30.03,SSW,210,0.0,0.0,97,0.00,,,0.00,Wunderground v.1.15,2013-01-02 08:54:00,
2013-01-02 03:55:00,60.5,59.6,30.03,SSW,210,0.0,0.0,97,0.00,,,0.00,Wunderground v.1.15,2013-01-02 08:55:00,
2013-01-02 03:59:00,60.7,60.1,30.03,SSW,210,0.0,0.0,98,0.00,,,0.00,Wunderground v.1.15,2013-01-02 08:59:00,
2013-01-02 04:00:00,60.7,60.1,30.03,SSW,210,0.0,0.0,98,0.00,,,0.00,Wunderground v.1.15,2013-01-02 09:00:00,
2013-01-02 04:01:00,60.7,60.1,30.03,SSW,210,0.0,0.0,98,0.00,,,0.00,Wunderground v.1.15,2013-01-02 09:01:00,
2013-01-02 04:04:00,61.0,60.4,30.03,SSW,210,0.0,0.0,98,0.00,,,0.00,Wunderground v.1.15,2013-01-02 09:04:00,
2013-01-02 04:05:00,61.0,60.4,30.03,SSW,210,0.0,0.0,98,0.00,,,0.00,Wunderground v.1.15,2013-01-02 09:05:00,
2013-01-02 04:06:00,61.1,60.5,30.03,SSW,210,0.0,0.0,98,0.00,,,0.00,Wunderground v.1.15,2013-01-02 09:06:00,
2013-01-02 04:10:00,61.3,60.7,30.03,SSW,210,0.0,0.0,98,0.00,,,0.00,Wunderground v.1.15,2013-01-02 09:10:00,
2013-01-02 04:11:00,61.4,60.8,30.03,SSW,210,0.0,0.0,98,0.00,,,0.00,Wunderground v.1.15,2013-01-02 09:11:00,
2013-01-02 04:15:00,61.4,60.8,30.03,SSW,210,0.0,0.0,98,0.00,,,0.00,Wunderground v.1.15,2013-01-02 09:15:00,
2013-01-02 04:16:00,61.4,60.8,30.03,SSW,210,0.0,0.0,98,0.00,,,0.00,Wunderground v.1.15,2013-01-02 09:16:00,
2013-01-02 04:20:00,61.4,60.8,30.03,SSW,210,0.0,0.0,98,0.00,,,0.00,Wunderground v.1.15,2013-01-02 09:20:00,
2013-01-02 04:21:00,61.5,60.9,30.03,SSW,210,0.0,0.0,98,0.00,,,0.00,Wunderground v.1.15,2013-01-02 09:21:00,
2013-01-02 04:25:00,61.6,61.0,30.03,SSW,210,0.0,0.0,98,0.00,,,0.00,Wunderground v.1.15,2013-01-02 09:25:00,
2013-01-02 04:26:00,61.6,61.0,30.03,SSW,210,0.0,0.0,98,0.00,,,0.00,Wunderground v.1.15,2013-01-02 09:26:00,
2013-01-02 04:27:00,61.6,61.0,30.03,SSW,210,0.0,0.0,98,0.00,,,0.00,Wunderground v.1.15,2013-01-02 09:27:00,
2013-01-02 04:30:00,61.8,61.2,30.03,SSW,210,0.0,0.0,98,0.00,,,0.00,Wunderground v.1.15,2013-01-02 09:30:00,
2013-01-02 04:31:00,61.8,61.2,30.03,SSW,210,0.0,0.0,98,0.00,,,0.00,Wunderground v.1.15,2013-01-02 09:31:00,
2013-01-02 04:32:00,61.8,61.2,30.03,SSW,210,0.0,0.0,98,0.00,,,0.00,Wunderground v.1.15,2013-01-02 09:32:00,
2013-01-02 04:35:00,62.0,61.4,30.03,SSW,210,0.0,0.0,98,0.00,,,0.00,Wunderground v.1.15,2013-01-02 09:35:00,
2013-01-02 04:36:00,62.0,61.4,30.03,SSW,210,0.0,0.0,98,0.00,,,0.00,Wunderground v.1.15,2013-01-02 09:36:00,
2013-01-02 04:37:00,62.0,61.4,30.03,SSW,210,0.0,0.0,98,0.00,,,0.00,Wunderground v.1.15,2013-01-02 09:37:00,
2013-01-02 04:40:00,62.2,61.6,30.03,SSW,210,0.0,0.0,98,0.00,,,0.00,Wunderground v.1.15,2013-01-02 09:40:00,
2013-01-02 04:41:00,62.2,61.6,30.03,SSW,210,0.0,0.0,98,0.00,,,0.00,Wunderground v.1.15,2013-01-02 09:41:00,
2013-01-02 04:42:00,62.3,61.7,30.03,SSW,210,0.0,0.0,98,0.00,,,0.00,Wunderground v.1.15,2013-01-02 09:42:00,
2013-01-02 04:46:00,62.6,62.0,30.03,SSW,210,0.0,0.0,98,0.00,,,0.00,Wunderground v.1.15,2013-01-02 09:46:00,
2013-01-02 04:47:00,62.7,62.1,30.03,SSW,210,0.0,0.0,98,0.00,,,0.00,Wunderground v.1.15,2013-01-02 09:47:00,
2013-01-02 04:51:00,63.3,62.7,30.03,SSW,210,0.0,0.0,98,0.00,,,0.00,Wunderground v.1.15,2013-01-02 09:51:00,
2013-01-02 04:52:00,63.4,62.8,30.03,SSW,210,0.0,0.0,98,0.00,,,0.00,Wunderground v.1.15,2013-01-02 09:52:00,
2013-01-02 04:56:00,63.8,63.2,30.03,SSE,165,0.0,1.0,98,0.00,,,0.00,Wunderground v.1.15,2013-01-02 09:56:00,
2013-01-02 04:57:00,63.9,63.3,30.03,SSE,165,0.0,1.0,98,0.00,,,0.00,Wunderground v.1.15,2013-01-02 09:57:00,
2013-01-02 05:01:00,64.2,63.6,30.03,SSE,165,0.0,0.0,98,0.00,,,0.00,Wunderground v.1.15,2013-01-02 10:01:00,
2013-01-02 05:02:00,64.2,63.6,30.03,SSE,165,0.0,0.0,98,0.00,,,0.00,Wunderground v.1.15,2013-01-02 10:02:00,
2013-01-02 05:06:00,64.3,63.7,30.03,SSE,165,0.0,0.0,98,0.00,,,0.00,Wunderground v.1.15,2013-01-02 10:06:00,
2013-01-02 05:07:00,64.4,63.8,30.03,SSE,165,0.0,0.0,98,0.00,,,0.00,Wunderground v.1.15,2013-01-02 10:07:00,
2013-01-02 05:11:00,64.5,63.9,30.03,SSE,165,0.0,0.0,98,0.00,,,0.00,Wunderground v.1.15,2013-01-02 10:11:00,
2013-01-02 05:12:00,64.5,63.9,30.03,SSE,165,0.0,0.0,98,0.00,,,0.00,Wunderground v.1.15,2013-01-02 10:12:00,
2013-01-02 05:13:00,64.5,63.9,30.03,SSE,165,0.0,0.0,98,0.00,,,0.00,Wunderground v.1.15,2013-01-02 10:13:00,
2013-01-02 05:17:00,64.7,64.1,30.03,SSE,165,0.0,0.0,98,0.00,,,0.00,Wunderground v.1.15,2013-01-02 10:17:00,
2013-01-02 05:18:00,64.7,64.1,30.03,SSE,165,0.0,0.0,98,0.00,,,0.00,Wunderground v.1.15,2013-01-02 10:18:00,
2013-01-02 05:22:00,64.9,64.3,30.03,SSE,165,0.0,0.0,98,0.00,,,0.00,Wunderground v.1.15,2013-01-02 10:22:00,
2013-01-02 05:23:00,65.0,64.4,30.03,SSE,165,0.0,0.0,98,0.00,,,0.00,Wunderground v.1.15,2013-01-02 10:23:00,
2013-01-02 05:27:00,65.2,64.6,30.03,SSE,168,0.0,0.0,98,0.00,,,0.00,Wunderground v.1.15,2013-01-02 10:27:00,
2013-01-02 05:28:00,65.2,64.6,30.03,SSE,168,0.0,0.0,98,0.00,,,0.00,Wunderground v.1.15,2013-01-02 10:28:00,
2013-01-02 05:32:00,65.4,64.8,30.03,ESE,108,0.0,1.0,98,0.00,,,0.00,Wunderground v.1.15,2013-01-02 10:32:00,
2013-01-02 05:33:00,65.5,64.9,30.03,ESE,108,0.0,1.0,98,0.00,,,0.00,Wunderground v.1.15,2013-01-02 10:33:00,
2013-01-02 05:37:00,65.6,65.0,30.03,ESE,108,0.0,1.0,98,0.00,,,0.00,Wunderground v.1.15,2013-01-02 10:37:00,
2013-01-02 05:38:00,65.6,65.0,30.03,ESE,108,0.0,1.0,98,0.00,,,0.00,Wunderground v.1.15,2013-01-02 10:38:00,
2013-01-02 05:42:00,65.7,65.1,30.03,ESE,108,0.0,0.0,98,0.00,,,0.00,Wunderground v.1.15,2013-01-02 10:42:00,
2013-01-02 05:43:00,65.8,65.2,30.03,South,188,0.0,1.0,98,0.00,,,0.00,Wunderground v.1.15,2013-01-02 10:43:00,
2013-01-02 05:47:00,65.9,65.3,30.03,South,174,1.0,1.0,98,0.00,,,0.00,Wunderground v.1.15,2013-01-02 10:47:00,
2013-01-02 05:48:00,65.9,65.3,30.03,WSW,241,0.0,2.0,98,0.00,,,0.00,Wunderground v.1.15,2013-01-02 10:48:00,
2013-01-02 05:49:00,66.0,65.4,30.03,ESE,107,0.0,2.0,98,0.00,,,0.00,Wunderground v.1.15,2013-01-02 10:49:00,
2013-01-02 05:52:00,66.0,65.4,30.03,ESE,112,0.0,1.0,98,0.00,,,0.00,Wunderground v.1.15,2013-01-02 10:52:00,
2013-01-02 05:53:00,66.1,65.5,30.03,ESE,112,0.0,1.0,98,0.00,,,0.00,Wunderground v.1.15,2013-01-02 10:53:00,
2013-01-02 05:54:00,66.1,65.5,30.03,ESE,113,0.0,1.0,98,0.00,,,0.00,Wunderground v.1.15,2013-01-02 10:54:00,
2013-01-02 05:57:00,66.2,65.6,30.03,North,11,0.0,1.0,98,0.00,,,0.00,Wunderground v.1.15,2013-01-02 10:57:00,
2013-01-02 05:58:00,66.3,65.7,30.03,North,11,0.0,1.0,98,0.00,,,0.00,Wunderground v.1.15,2013-01-02 10:58:00,
2013-01-02 05:59:00,66.3,65.7,30.03,East,92,0.0,1.0,98,0.00,,,0.00,Wunderground v.1.15,2013-01-02 10:59:00,
2013-01-02 06:02:00,66.4,65.8,30.03,East,91,0.0,1.0,98,0.00,,,0.00,Wunderground v.1.15,2013-01-02 11:02:00,
2013-01-02 06:03:00,66.4,65.8,30.03,East,91,1.0,1.0,98,0.00,,,0.00,Wunderground v.1.15,2013-01-02 11:03:00,
2013-01-02 06:04:00,66.4,65.8,30.03,East,91,0.0,1.0,98,0.00,,,0.00,Wunderground v.1.15,2013-01-02 11:04:00,
2013-01-02 06:08:00,66.5,65.9,30.03,SSE,167,0.0,1.0,98,0.00,,,0.00,Wunderground v.1.15,2013-01-02 11:08:00,
2013-01-02 06:09:00,66.5,65.9,30.03,SSE,167,0.0,1.0,98,0.00,,,0.00,Wunderground v.1.15,2013-01-02 11:09:00,
2013-01-02 06:13:00,66.6,65.7,30.03,WSW,254,0.0,0.0,97,0.00,,,0.00,Wunderground v.1.15,2013-01-02 11:13:00,
2013-01-02 06:14:00,66.6,65.7,30.03,South,169,2.0,2.0,97,0.00,,,0.00,Wunderground v.1.15,2013-01-02 11:14:00,
2013-01-02 06:18:00,66.7,65.8,30.03,SSE,160,0.0,2.0,97,0.00,,,0.00,Wunderground v.1.15,2013-01-02 11:18:00,
2013-01-02 06:19:00,66.7,65.8,30.03,ESE,122,0.0,2.0,97,0.00,,,0.00,Wunderground v.1.15,2013-01-02 11:19:00,
2013-01-02 06:20:00,66.7,65.8,30.03,ESE,122,0.0,0.0,97,0.00,,,0.00,Wunderground v.1.15,2013-01-02 11:20:00,
2013-01-02 06:23:00,66.8,65.9,30.03,SSE,165,0.0,1.0,97,0.00,,,0.00,Wunderground v.1.15,2013-01-02 11:23:00,
2013-01-02 06:24:00,66.8,65.9,30.03,SE,128,0.0,1.0,97,0.00,,,0.00,Wunderground v.1.15,2013-01-02 11:24:00,
2013-01-02 06:25:00,66.8,65.9,30.03,ESE,122,0.0,1.0,97,0.00,,,0.00,Wunderground v.1.15,2013-01-02 11:25:00,
2013-01-02 06:28:00,66.9,66.0,30.03,SE,145,0.0,1.0,97,0.00,,,0.00,Wunderground v.1.15,2013-01-02 11:28:00,
2013-01-02 06:29:00,66.9,66.0,30.03,NNW,327,0.0,1.0,97,0.00,,,0.00,Wunderground v.1.15,2013-01-02 11:29:00,
2013-01-02 06:30:00,66.9,66.0,30.03,NNW,327,0.0,0.0,97,0.00,,,0.00,Wunderground v.1.15,2013-01-02 11:30:00,
2013-01-02 06:33:00,66.9,66.0,30.03,SSE,157,1.0,2.0,97,0.00,,,0.00,Wunderground v.1.15,2013-01-02 11:33:00,
2013-01-02 06:34:00,66.9,66.0,30.03,South,181,1.0,2.0,97,0.00,,,0.00,Wunderground v.1.15,2013-01-02 11:34:00,
2013-01-02 06:35:00,66.9,66.0,30.04,SSW,200,1.0,2.0,97,0.00,,,0.00,Wunderground v.1.15,2013-01-02 11:35:00,
2013-01-02 06:38:00,67.0,65.8,30.04,ESE,105,0.0,2.0,96,0.00,,,0.00,Wunderground v.1.15,2013-01-02 11:38:00,
2013-01-02 06:39:00,66.9,65.7,30.04,ESE,116,0.0,2.0,96,0.00,,,0.00,Wunderground v.1.15,2013-01-02 11:39:00,
2013-01-02 06:40:00,67.0,65.8,30.04,ESE,115,0.0,0.0,96,0.00,,,0.00,Wunderground v.1.15,2013-01-02 11:40:00,
2013-01-02 06:41:00,67.0,65.8,30.04,ESE,116,0.0,0.0,96,0.00,,,0.00,Wunderground v.1.15,2013-01-02 11:41:00,
2013-01-02 06:44:00,66.9,65.7,30.04,ESE,117,0.0,1.0,96,0.00,,,0.00,Wunderground v.1.15,2013-01-02 11:44:00,
2013-01-02 06:45:00,66.9,65.7,30.04,SSE,150,0.0,1.0,96,0.00,,,0.00,Wunderground v.1.15,2013-01-02 11:45:00,
2013-01-02 06:46:00,66.9,65.7,30.04,SSE,150,0.0,1.0,96,0.00,,,0.00,Wunderground v.1.15,2013-01-02 11:46:00,
2013-01-02 06:49:00,66.9,65.7,30.04,South,182,0.0,1.0,96,0.00,,,0.00,Wunderground v.1.15,2013-01-02 11:49:00,
2013-01-02 06:50:00,66.9,65.7,30.04,SW,214,1.0,1.0,96,0.00,,,0.00,Wunderground v.1.15,2013-01-02 11:50:00,
2013-01-02 06:51:00,66.9,65.7,30.04,SW,214,0.0,1.0,96,0.00,,,0.00,Wunderground v.1.15,2013-01-02 11:51:00,
2013-01-02 06:54:00,66.9,65.7,30.04,SE,137,0.0,1.0,96,0.00,,,0.00,Wunderground v.1.15,2013-01-02 11:54:00,
2013-01-02 06:55:00,66.9,66.0,30.04,SW,220,0.0,3.0,97,0.00,,,0.00,Wunderground v.1.15,2013-01-02 11:55:00,
2013-01-02 06:57:00,67.0,66.1,30.04,ESE,118,0.0,3.0,97,0.00,,,0.00,Wunderground v.1.15,2013-01-02 11:57:00,
2013-01-02 06:59:00,67.0,65.8,30.04,ESE,117,0.0,3.0,96,0.00,,,0.00,Wunderground v.1.15,2013-01-02 11:59:00,
2013-01-02 07:00:00,67.0,66.1,30.04,ESE,118,1.0,1.0,97,0.00,,,0.00,Wunderground v.1.15,2013-01-02 12:00:00,
2013-01-02 07:01:00,67.0,65.8,30.04,SE,125,0.0,1.0,96,0.00,,,0.00,Wunderground v.1.15,2013-01-02 12:01:00,
2013-01-02 07:02:00,67.0,65.8,30.04,SE,125,0.0,1.0,96,0.00,,,0.00,Wunderground v.1.15,2013-01-02 12:02:00,
2013-01-02 07:04:00,67.0,65.8,30.04,SSE,147,2.0,2.0,96,0.00,,,0.00,Wunderground v.1.15,2013-01-02 12:04:00,
2013-01-02 07:05:00,67.0,66.1,30.04,SSW,208,0.0,2.0,97,0.00,,,0.00,Wunderground v.1.15,2013-01-02 12:05:00,
2013-01-02 07:06:00,67.0,66.1,30.04,WSW,252,2.0,5.0,97,0.00,,,0.00,Wunderground v.1.15,2013-01-02 12:06:00,
2013-01-02 07:07:00,67.1,66.2,30.04,NNW,328,0.0,5.0,97,0.00,,,0.00,Wunderground v.1.15,2013-01-02 12:07:00,
2013-01-02 07:09:00,67.1,66.2,30.04,SE,127,0.0,5.0,97,0.00,,,0.00,Wunderground v.1.15,2013-01-02 12:09:00,
2013-01-02 07:10:00,67.1,66.2,30.04,SE,126,0.0,1.0,97,0.00,,,0.00,Wunderground v.1.15,2013-01-02 12:10:00,
2013-01-02 07:11:00,67.1,66.2,30.04,SE,125,0.0,1.0,97,0.00,,,0.00,Wunderground v.1.15,2013-01-02 12:11:00,
2013-01-02 07:12:00,67.1,65.9,30.04,South,174,2.0,2.0,96,0.00,,,0.00,Wunderground v.1.15,2013-01-02 12:12:00,
2013-01-02 07:14:00,67.1,65.9,30.04,SSW,203,0.0,2.0,96,0.00,,,0.00,Wunderground v.1.15,2013-01-02 12:14:00,
2013-01-02 07:15:00,67.1,65.9,30.04,South,176,1.0,2.0,96,0.00,,,0.00,Wunderground v.1.15,2013-01-02 12:15:00,
2013-01-02 07:16:00,67.1,65.9,30.04,South,176,0.0,2.0,96,0.00,,,0.00,Wunderground v.1.15,2013-01-02 12:16:00,
2013-01-02 07:17:00,67.1,65.9,30.04,SSE,164,0.0,2.0,96,0.00,,,0.00,Wunderground v.1.15,2013-01-02 12:17:00,
2013-01-02 07:19:00,67.1,65.9,30.04,SE,146,0.0,0.0,96,0.00,,,0.00,Wunderground v.1.15,2013-01-02 12:19:00,
2013-01-02 07:21:00,67.1,65.9,30.04,SE,146,0.0,0.0,96,0.00,,,0.00,Wunderground v.1.15,2013-01-02 12:21:00,
2013-01-02 07:23:00,67.1,65.9,30.04,SSE,150,0.0,1.0,96,0.00,,,0.00,Wunderground v.1.15,2013-01-02 12:23:00,
2013-01-02 07:25:00,67.1,65.9,30.04,SE,134,0.0,1.0,96,0.00,,,0.00,Wunderground v.1.15,2013-01-02 12:25:00,
2013-01-02 07:26:00,67.1,66.2,30.04,SW,217,1.0,1.0,97,0.00,,,0.00,Wunderground v.1.15,2013-01-02 12:26:00,
2013-01-02 07:28:00,67.1,66.2,30.04,SSE,158,0.0,4.0,97,0.00,,,0.00,Wunderground v.1.15,2013-01-02 12:28:00,
2013-01-02 07:30:00,67.1,66.2,30.04,SE,129,0.0,0.0,97,0.00,,,0.00,Wunderground v.1.15,2013-01-02 12:30:00,
2013-01-02 07:31:00,67.1,66.2,30.04,SE,130,0.0,0.0,97,0.00,,,0.00,Wunderground v.1.15,2013-01-02 12:31:00,
2013-01-02 07:33:00,67.1,66.2,30.04,South,171,0.0,2.0,97,0.00,,,0.00,Wunderground v.1.15,2013-01-02 12:33:00,
2013-01-02 07:36:00,67.1,66.2,30.04,SSE,162,0.0,2.0,97,0.00,,,0.00,Wunderground v.1.15,2013-01-02 12:36:00,
2013-01-02 07:38:00,67.1,66.2,30.04,SSE,153,0.0,3.0,97,0.00,,,0.00,Wunderground v.1.15,2013-01-02 12:38:00,
2013-01-02 07:41:00,67.1,66.2,30.05,SSE,158,0.0,1.0,97,0.00,,,0.00,Wunderground v.1.15,2013-01-02 12:41:00,
2013-01-02 07:43:00,67.1,66.2,30.05,SSE,158,0.0,1.0,97,0.00,,,0.00,Wunderground v.1.15,2013-01-02 12:43:00,
2013-01-02 07:46:00,67.1,66.2,30.05,SW,231,0.0,1.0,97,0.00,,,0.00,Wunderground v.1.15,2013-01-02 12:46:00,
2013-01-02 07:49:00,67.1,66.2,30.05,SW,231,0.0,1.0,97,0.00,,,0.00,Wunderground v.1.15,2013-01-02 12:49:00,
2013-01-02 07:51:00,67.1,66.2,30.05,South,182,1.0,2.0,97,0.00,,,0.00,Wunderground v.1.15,2013-01-02 12:51:00,
2013-01-02 07:54:00,67.1,66.2,30.05,SSE,165,0.0,2.0,97,0.00,,,0.00,Wunderground v.1.15,2013-01-02 12:54:00,
2013-01-02 07:56:00,67.2,66.3,30.04,SSE,155,0.0,2.0,97,0.00,,,0.00,Wunderground v.1.15,2013-01-02 12:56:00,
2013-01-02 07:57:00,67.2,66.3,30.05,SSE,153,0.0,2.0,97,0.00,,,0.00,Wunderground v.1.15,2013-01-02 12:57:00,
2013-01-02 07:59:00,67.2,66.3,30.05,South,177,0.0,2.0,97,0.00,,,0.00,Wunderground v.1.15,2013-01-02 12:59:00,
2013-01-02 08:01:00,67.2,66.3,30.05,South,188,0.0,1.0,97,0.00,,,0.00,Wunderground v.1.15,2013-01-02 13:01:00,
2013-01-02 08:02:00,67.2,66.3,30.05,SSW,212,2.0,2.0,97,0.00,,,0.00,Wunderground v.1.15,2013-01-02 13:02:00,
2013-01-02 08:04:00,67.2,66.3,30.05,SE,134,0.0,2.0,97,0.00,,,0.00,Wunderground v.1.15,2013-01-02 13:04:00,
2013-01-02 08:06:00,67.2,66.3,30.05,SSE,158,0.0,2.0,97,0.00,,,0.00,Wunderground v.1.15,2013-01-02 13:06:00,
2013-01-02 08:07:00,67.2,66.3,30.05,SE,141,0.0,2.0,97,0.00,,,0.00,Wunderground v.1.15,2013-01-02 13:07:00,
2013-01-02 08:09:00,67.2,66.0,30.05,SE,132,0.0,2.0,96,0.00,,,0.00,Wunderground v.1.15,2013-01-02 13:09:00,
2013-01-02 08:11:00,67.2,66.0,30.05,SSE,168,1.0,1.0,96,0.00,,,0.00,Wunderground v.1.15,2013-01-02 13:11:00,
2013-01-02 08:12:00,67.2,66.3,30.05,SE,131,0.0,1.0,97,0.00,,,0.00,Wunderground v.1.15,2013-01-02 13:12:00,
2013-01-02 08:14:00,67.3,66.4,30.05,South,180,0.0,2.0,97,0.00,,,0.00,Wunderground v.1.15,2013-01-02 13:14:00,
2013-01-02 08:16:00,67.3,66.4,30.05,SSE,162,0.0,2.0,97,0.00,,,0.00,Wunderground v.1.15,2013-01-02 13:16:00,
2013-01-02 08:18:00,67.4,66.5,30.05,SSE,162,0.0,2.0,97,0.00,,,0.00,Wunderground v.1.15,2013-01-02 13:18:00,
2013-01-02 08:20:00,67.5,66.6,30.05,SSE,158,0.0,0.0,97,0.00,,,0.00,Wunderground v.1.15,2013-01-02 13:20:00,
2013-01-02 08:21:00,67.6,66.4,30.05,SE,132,0.0,5.0,96,0.00,,,0.00,Wunderground v.1.15,2013-01-02 13:21:00,
2013-01-02 08:22:00,67.6,66.4,30.05,SE,134,0.0,5.0,96,0.00,,,0.00,Wunderground v.1.15,2013-01-02 13:22:00,
2013-01-02 08:23:00,67.7,66.5,30.05,South,169,1.0,5.0,96,0.00,,,0.00,Wunderground v.1.15,2013-01-02 13:23:00,
2013-01-02 08:25:00,67.7,66.5,30.06,SW,229,0.0,5.0,96,0.00,,,0.00,Wunderground v.1.15,2013-01-02 13:25:00,
2013-01-02 08:27:00,67.8,66.6,30.06,SW,214,0.0,5.0,96,0.00,,,0.00,Wunderground v.1.15,2013-01-02 13:27:00,
2013-01-02 08:28:00,67.8,66.6,30.06,SW,224,0.0,5.0,96,0.00,,,0.00,Wunderground v.1.15,2013-01-02 13:28:00,
2013-01-02 08:30:00,67.9,66.7,30.06,SSE,161,0.0,1.0,96,0.00,,,0.00,Wunderground v.1.15,2013-01-02 13:30:00,
2013-01-02 08:32:00,68.0,66.8,30.06,SSE,161,0.0,1.0,96,0.00,,,0.00,Wunderground v.1.15,2013-01-02 13:32:00,
2013-01-02 08:33:00,68.0,66.8,30.06,SSE,153,2.0,3.0,96,0.00,,,0.00,Wunderground v.1.15,2013-01-02 13:33:00,
2013-01-02 08:35:00,68.1,66.9,30.06,SSE,149,0.0,3.0,96,0.00,,,0.00,Wunderground v.1.15,2013-01-02 13:35:00,
2013-01-02 08:37:00,68.1,66.9,30.06,SE,142,0.0,3.0,96,0.00,,,0.00,Wunderground v.1.15,2013-01-02 13:37:00,
2013-01-02 08:38:00,68.1,66.9,30.06,SE,144,0.0,3.0,96,0.00,,,0.00,Wunderground v.1.15,2013-01-02 13:38:00,
2013-01-02 08:41:00,68.1,66.9,30.06,SE,126,0.0,1.0,96,0.00,,,0.00,Wunderground v.1.15,2013-01-02 13:41:00,
2013-01-02 08:42:00,68.1,66.9,30.06,SE,143,0.0,2.0,96,0.00,,,0.00,Wunderground v.1.15,2013-01-02 13:42:00,
2013-01-02 08:44:00,68.1,66.9,30.06,SE,137,0.0,2.0,96,0.00,,,0.00,Wunderground v.1.15,2013-01-02 13:44:00,
2013-01-02 08:46:00,68.2,67.0,30.06,SE,135,1.0,3.0,96,0.00,,,0.00,Wunderground v.1.15,2013-01-02 13:46:00,
2013-01-02 08:47:00,68.2,67.0,30.06,South,181,0.0,3.0,96,0.00,,,0.00,Wunderground v.1.15,2013-01-02 13:47:00,
2013-01-02 08:48:00,68.3,67.1,30.06,SSE,164,0.0,3.0,96,0.00,,,0.00,Wunderground v.1.15,2013-01-02 13:48:00,
2013-01-02 08:49:00,68.3,67.1,30.06,SE,136,0.0,3.0,96,0.00,,,0.00,Wunderground v.1.15,2013-01-02 13:49:00,
2013-01-02 08:51:00,68.5,67.3,30.06,South,169,0.0,2.0,96,0.00,,,0.00,Wunderground v.1.15,2013-01-02 13:51:00,
2013-01-02 08:52:00,68.6,67.4,30.06,ESE,121,0.0,2.0,96,0.00,,,0.00,Wunderground v.1.15,2013-01-02 13:52:00,
2013-01-02 08:53:00,68.7,67.5,30.06,SE,124,0.0,2.0,96,0.00,,,0.00,Wunderground v.1.15,2013-01-02 13:53:00,
2013-01-02 08:54:00,68.8,67.6,30.06,SE,132,0.0,2.0,96,0.00,,,0.00,Wunderground v.1.15,2013-01-02 13:54:00,
2013-01-02 08:56:00,69.0,67.5,30.06,SE,127,1.0,2.0,95,0.00,,,0.00,Wunderground v.1.15,2013-01-02 13:56:00,
2013-01-02 08:57:00,69.2,67.7,30.06,SE,146,0.0,2.0,95,0.00,,,0.00,Wunderground v.1.15,2013-01-02 13:57:00,
2013-01-02 08:58:00,69.2,67.7,30.06,SSE,158,0.0,2.0,95,0.00,,,0.00,Wunderground v.1.15,2013-01-02 13:58:00,
2013-01-02 08:59:00,69.4,67.9,30.06,SSE,154,0.0,2.0,95,0.00,,,0.00,Wunderground v.1.15,2013-01-02 13:59:00,
2013-01-02 09:01:00,69.7,68.2,30.06,NNW,336,1.0,1.0,95,0.00,,,0.00,Wunderground v.1.15,2013-01-02 14:01:00,
2013-01-02 09:03:00,69.8,68.0,30.06,South,191,1.0,3.0,94,0.00,,,0.00,Wunderground v.1.15,2013-01-02 14:03:00,
2013-01-02 09:04:00,69.9,68.1,30.06,South,188,0.0,3.0,94,0.00,,,0.00,Wunderground v.1.15,2013-01-02 14:04:00,
2013-01-02 09:07:00,70.1,68.3,30.06,SSE,154,1.0,3.0,94,0.00,,,0.00,Wunderground v.1.15,2013-01-02 14:07:00,
2013-01-02 09:08:00,70.2,68.4,30.06,ESE,116,3.0,4.0,94,0.00,,,0.00,Wunderground v.1.15,2013-01-02 14:08:00,
2013-01-02 09:09:00,70.3,68.2,30.06,SE,138,1.0,4.0,93,0.00,,,0.00,Wunderground v.1.15,2013-01-02 14:09:00,
2013-01-02 09:12:00,70.6,68.5,30.06,ESE,123,0.0,1.0,93,0.00,,,0.00,Wunderground v.1.15,2013-01-02 14:12:00,
2013-01-02 09:13:00,70.6,68.5,30.06,ESE,116,1.0,1.0,93,0.00,,,0.00,Wunderground v.1.15,2013-01-02 14:13:00,
2013-01-02 09:14:00,70.8,68.4,30.06,SSE,165,1.0,4.0,92,0.00,,,0.00,Wunderground v.1.15,2013-01-02 14:14:00,
2013-01-02 09:17:00,71.0,68.6,30.06,SSE,167,2.0,4.0,92,0.00,,,0.00,Wunderground v.1.15,2013-01-02 14:17:00,
2013-01-02 09:18:00,71.0,68.6,30.06,South,176,1.0,4.0,92,0.00,,,0.00,Wunderground v.1.15,2013-01-02 14:18:00,
2013-01-02 09:20:00,71.1,68.7,30.06,SE,141,1.0,3.0,92,0.00,,,0.00,Wunderground v.1.15,2013-01-02 14:20:00,
2013-01-02 09:22:00,71.2,68.4,30.06,WSW,246,1.0,3.0,91,0.00,,,0.00,Wunderground v.1.15,2013-01-02 14:22:00,
2013-01-02 09:23:00,71.2,68.4,30.06,ESE,105,1.0,3.0,91,0.00,,,0.00,Wunderground v.1.15,2013-01-02 14:23:00,
2013-01-02 09:25:00,71.4,68.6,30.06,SSE,155,1.0,3.0,91,0.00,,,0.00,Wunderground v.1.15,2013-01-02 14:25:00,
2013-01-02 09:27:00,71.6,68.5,30.06,SE,141,1.0,3.0,90,0.00,,,0.00,Wunderground v.1.15,2013-01-02 14:27:00,
2013-01-02 09:28:00,71.6,68.8,30.06,SE,125,2.0,3.0,91,0.00,,,0.00,Wunderground v.1.15,2013-01-02 14:28:00,
2013-01-02 09:30:00,71.7,68.6,30.06,SSE,161,0.0,4.0,90,0.00,,,0.00,Wunderground v.1.15,2013-01-02 14:30:00,
2013-01-02 09:32:00,71.9,68.8,30.06,SSE,161,0.0,4.0,90,0.00,,,0.00,Wunderground v.1.15,2013-01-02 14:32:00,
2013-01-02 09:33:00,72.0,68.9,30.06,ESE,108,2.0,4.0,90,0.00,,,0.00,Wunderground v.1.15,2013-01-02 14:33:00,
2013-01-02 09:35:00,72.2,68.8,30.06,SW,234,3.0,4.0,89,0.00,,,0.00,Wunderground v.1.15,2013-01-02 14:35:00,
2013-01-02 09:37:00,72.3,68.9,30.06,ENE,72,0.0,4.0,89,0.00,,,0.00,Wunderground v.1.15,2013-01-02 14:37:00,
2013-01-02 09:38:00,72.4,69.0,30.06,ESE,106,0.0,4.0,89,0.00,,,0.00,Wunderground v.1.15,2013-01-02 14:38:00,
2013-01-02 09:39:00,72.5,69.1,30.06,SE,124,0.0,4.0,89,0.00,,,0.00,Wunderground v.1.15,2013-01-02 14:39:00,
2013-01-02 09:41:00,72.7,69.3,30.06,WSW,238,3.0,3.0,89,0.00,,,0.00,Wunderground v.1.15,2013-01-02 14:41:00,
2013-01-02 09:42:00,72.8,69.0,30.06,SE,146,2.0,3.0,88,0.00,,,0.00,Wunderground v.1.15,2013-01-02 14:42:00,
2013-01-02 09:43:00,72.9,69.1,30.06,ESE,110,1.0,3.0,88,0.00,,,0.00,Wunderground v.1.15,2013-01-02 14:43:00,
2013-01-02 09:44:00,73.0,69.2,30.06,SSE,160,0.0,3.0,88,0.00,,,0.00,Wunderground v.1.15,2013-01-02 14:44:00,
2013-01-02 09:46:00,73.1,69.3,30.06,East,84,1.0,3.0,88,0.00,,,0.00,Wunderground v.1.15,2013-01-02 14:46:00,
2013-01-02 09:48:00,73.3,69.2,30.06,South,170,4.0,4.0,87,0.00,,,0.00,Wunderground v.1.15,2013-01-02 14:48:00,
2013-01-02 09:50:00,73.3,68.9,30.06,ESE,122,2.0,2.0,86,0.00,,,0.00,Wunderground v.1.15,2013-01-02 14:50:00,
2013-01-02 09:51:00,73.4,69.0,30.06,SSE,165,1.0,5.0,86,0.00,,,0.00,Wunderground v.1.15,2013-01-02 14:51:00,
2013-01-02 09:53:00,73.4,69.0,30.06,SSE,154,2.0,5.0,86,0.00,,,0.00,Wunderground v.1.15,2013-01-02 14:53:00,
2013-01-02 09:55:00,73.5,69.1,30.07,ESE,118,1.0,5.0,86,0.00,,,0.00,Wunderground v.1.15,2013-01-02 14:55:00,
2013-01-02 09:56:00,73.5,69.1,30.07,SSE,150,2.0,5.0,86,0.00,,,0.00,Wunderground v.1.15,2013-01-02 14:56:00,
2013-01-02 09:58:00,73.5,68.7,30.06,South,179,0.0,5.0,85,0.00,,,0.00,Wunderground v.1.15,2013-01-02 14:58:00,
2013-01-02 09:59:00,73.6,69.2,30.06,SE,129,0.0,5.0,86,0.00,,,0.00,Wunderground v.1.15,2013-01-02 14:59:00,
2013-01-02 10:00:00,73.7,69.2,30.07,SE,139,2.0,2.0,86,0.00,,,0.00,Wunderground v.1.15,2013-01-02 15:00:00,
2013-01-02 10:01:00,73.8,69.0,30.07,SW,217,1.0,2.0,85,0.00,,,0.00,Wunderground v.1.15,2013-01-02 15:01:00,
2013-01-02 10:03:00,74.0,69.2,30.07,NE,52,1.0,4.0,85,0.00,,,0.00,Wunderground v.1.15,2013-01-02 15:03:00,
2013-01-02 10:04:00,74.1,69.3,30.07,SE,146,2.0,4.0,85,0.00,,,0.00,Wunderground v.1.15,2013-01-02 15:04:00,
2013-01-02 10:05:00,74.3,69.1,30.07,SSE,168,1.0,5.0,84,0.00,,,0.00,Wunderground v.1.15,2013-01-02 15:05:00,
2013-01-02 10:06:00,74.4,69.2,30.07,SE,139,1.0,5.0,84,0.00,,,0.00,Wunderground v.1.15,2013-01-02 15:06:00,
2013-01-02 10:08:00,74.6,68.7,30.07,ESE,121,1.0,5.0,82,0.00,,,0.00,Wunderground v.1.15,2013-01-02 15:08:00,
2013-01-02 10:09:00,74.6,68.7,30.07,SE,134,1.0,5.0,82,0.00,,,0.00,Wunderground v.1.15,2013-01-02 15:09:00,
2013-01-02 10:10:00,74.7,68.8,30.07,SSW,200,1.0,3.0,82,0.00,,,0.00,Wunderground v.1.15,2013-01-02 15:10:00,
2013-01-02 10:12:00,74.8,68.9,30.07,SSE,150,2.0,3.0,82,0.00,,,0.00,Wunderground v.1.15,2013-01-02 15:12:00,
2013-01-02 10:13:00,74.9,69.0,30.07,SSE,153,2.0,4.0,82,0.00,,,0.00,Wunderground v.1.15,2013-01-02 15:13:00,
2013-01-02 10:14:00,74.9,68.7,30.07,SSE,153,2.0,4.0,81,0.00,,,0.00,Wunderground v.1.15,2013-01-02 15:14:00,
2013-01-02 10:15:00,74.8,68.9,30.07,SE,142,1.0,4.0,82,0.00,,,0.00,Wunderground v.1.15,2013-01-02 15:15:00,
2013-01-02 10:17:00,74.9,69.0,30.07,SSW,209,0.0,4.0,82,0.00,,,0.00,Wunderground v.1.15,2013-01-02 15:17:00,
2013-01-02 10:19:00,75.0,68.8,30.07,SSE,154,1.0,4.0,81,0.00,,,0.00,Wunderground v.1.15,2013-01-02 15:19:00,
2013-01-02 10:21:00,75.1,68.9,30.07,East,99,0.0,2.0,81,0.00,,,0.00,Wunderground v.1.15,2013-01-02 15:21:00,
2013-01-02 10:22:00,75.2,69.0,30.07,SE,136,2.0,2.0,81,0.00,,,0.00,Wunderground v.1.15,2013-01-02 15:22:00,
2013-01-02 10:24:00,75.3,68.7,30.07,SSW,212,5.0,5.0,80,0.00,,,0.00,Wunderground v.1.15,2013-01-02 15:24:00,
2013-01-02 10:25:00,75.3,68.7,30.07,South,179,1.0,5.0,80,0.00,,,0.00,Wunderground v.1.15,2013-01-02 15:25:00,
2013-01-02 10:26:00,75.3,68.7,30.07,SE,137,2.0,5.0,80,0.00,,,0.00,Wunderground v.1.15,2013-01-02 15:26:00,
2013-01-02 10:28:00,75.4,69.2,30.07,SSE,165,2.0,5.0,81,0.00,,,0.00,Wunderground v.1.15,2013-01-02 15:28:00,
2013-01-02 10:29:00,75.4,69.2,30.07,NE,48,0.0,5.0,81,0.00,,,0.00,Wunderground v.1.15,2013-01-02 15:29:00,
2013-01-02 10:30:00,75.5,68.9,30.07,South,175,3.0,3.0,80,0.00,,,0.00,Wunderground v.1.15,2013-01-02 15:30:00,
2013-01-02 10:31:00,75.6,69.0,30.07,SSE,163,4.0,4.0,80,0.00,,,0.00,Wunderground v.1.15,2013-01-02 15:31:00,
2013-01-02 10:33:00,75.6,68.6,30.07,ESE,116,1.0,4.0,79,0.00,,,0.00,Wunderground v.1.15,2013-01-02 15:33:00,
2013-01-02 10:34:00,75.7,68.7,30.07,South,170,3.0,4.0,79,0.00,,,0.00,Wunderground v.1.15,2013-01-02 15:34:00,
2013-01-02 10:35:00,75.7,68.7,30.07,South,187,2.0,4.0,79,0.00,,,0.00,Wunderground v.1.15,2013-01-02 15:35:00,
2013-01-02 10:36:00,75.7,68.7,30.07,SE,124,2.0,4.0,79,0.00,,,0.00,Wunderground v.1.15,2013-01-02 15:36:00,
2013-01-02 10:38:00,75.7,69.1,30.07,SSW,193,1.0,4.0,80,0.00,,,0.00,Wunderground v.1.15,2013-01-02 15:38:00,
2013-01-02 10:39:00,75.7,68.7,30.07,SSE,160,1.0,4.0,79,0.00,,,0.00,Wunderground v.1.15,2013-01-02 15:39:00,
2013-01-02 10:40:00,75.8,69.2,30.07,ENE,65,0.0,1.0,80,0.00,,,0.00,Wunderground v.1.15,2013-01-02 15:40:00,
2013-01-02 10:41:00,75.9,68.9,30.06,ESE,118,3.0,3.0,79,0.00,,,0.00,Wunderground v.1.15,2013-01-02 15:41:00,
2013-01-02 10:43:00,75.8,69.2,30.06,WNW,296,0.0,3.0,80,0.00,,,0.00,Wunderground v.1.15,2013-01-02 15:43:00,
2013-01-02 10:44:00,75.9,69.3,30.06,SSE,158,2.0,3.0,80,0.00,,,0.00,Wunderground v.1.15,2013-01-02 15:44:00,
2013-01-02 10:45:00,75.9,68.5,30.06,SE,124,1.0,3.0,78,0.00,,,0.00,Wunderground v.1.15,2013-01-02 15:45:00,
2013-01-02 10:47:00,76.0,68.6,30.06,SE,127,1.0,3.0,78,0.00,,,0.00,Wunderground v.1.15,2013-01-02 15:47:00,
2013-01-02 10:48:00,76.1,68.7,30.06,SE,131,2.0,3.0,78,0.00,,,0.00,Wunderground v.1.15,2013-01-02 15:48:00,
2013-01-02 10:49:00,76.1,68.7,30.06,SE,130,2.0,3.0,78,0.00,,,0.00,Wunderground v.1.15,2013-01-02 15:49:00,
2013-01-02 10:50:00,76.2,68.8,30.06,South,181,2.0,4.0,78,0.00,,,0.00,Wunderground v.1.15,2013-01-02 15:50:00,
2013-01-02 10:52:00,76.3,68.9,30.06,SE,138,1.0,4.0,78,0.00,,,0.00,Wunderground v.1.15,2013-01-02 15:52:00,
2013-01-02 10:53:00,76.4,68.7,30.06,South,186,1.0,4.0,77,0.00,,,0.00,Wunderground v.1.15,2013-01-02 15:53:00,
2013-01-02 10:54:00,76.5,68.7,30.06,ESE,115,1.0,4.0,77,0.00,,,0.00,Wunderground v.1.15,2013-01-02 15:54:00,
2013-01-02 10:55:00,76.7,68.9,30.06,South,172,1.0,4.0,77,0.00,,,0.00,Wunderground v.1.15,2013-01-02 15:55:00,
2013-01-02 10:57:00,76.8,69.0,30.06,ESE,117,4.0,4.0,77,0.00,,,0.00,Wunderground v.1.15,2013-01-02 15:57:00,
2013-01-02 10:58:00,76.9,68.8,30.06,ESE,106,0.0,4.0,76,0.00,,,0.00,Wunderground v.1.15,2013-01-02 15:58:00,
2013-01-02 10:59:00,77.0,68.9,30.06,SW,214,2.0,4.0,76,0.00,,,0.00,Wunderground v.1.15,2013-01-02 15:59:00,
2013-01-02 11:00:00,77.1,68.6,30.06,SE,135,1.0,3.0,75,0.00,,,0.00,Wunderground v.1.15,2013-01-02 16:00:00,
2013-01-02 11:02:00,77.1,68.6,30.06,SW,217,1.0,3.0,75,0.00,,,0.00,Wunderground v.1.15,2013-01-02 16:02:00,
2013-01-02 11:04:00,77.2,68.7,30.06,SSE,150,3.0,4.0,75,0.00,,,0.00,Wunderground v.1.15,2013-01-02 16:04:00,
2013-01-02 11:06:00,77.2,68.7,30.06,SSE,157,0.0,4.0,75,0.00,,,0.00,Wunderground v.1.15,2013-01-02 16:06:00,
2013-01-02 11:07:00,77.2,68.7,30.06,ESE,113,3.0,4.0,75,0.00,,,0.00,Wunderground v.1.15,2013-01-02 16:07:00,
2013-01-02 11:09:00,77.3,68.8,30.06,West,271,1.0,4.0,75,0.00,,,0.00,Wunderground v.1.15,2013-01-02 16:09:00,
2013-01-02 11:11:00,77.4,68.9,30.06,SSE,150,2.0,2.0,75,0.00,,,0.00,Wunderground v.1.15,2013-01-02 16:11:00,
2013-01-02 11:12:00,77.5,68.6,30.06,SSE,160,2.0,4.0,74,0.00,,,0.00,Wunderground v.1.15,2013-01-02 16:12:00,
2013-01-02 11:14:00,77.6,68.7,30.06,South,171,2.0,4.0,74,0.00,,,0.00,Wunderground v.1.15,2013-01-02 16:14:00,
2013-01-02 11:16:00,77.6,68.7,30.06,SE,143,1.0,4.0,74,0.00,,,0.00,Wunderground v.1.15,2013-01-02 16:16:00,
2013-01-02 11:17:00,77.7,68.4,30.06,ESE,117,1.0,4.0,73,0.00,,,0.00,Wunderground v.1.15,2013-01-02 16:17:00,
2013-01-02 11:20:00,77.6,69.0,30.06,WSW,257,2.0,2.0,75,0.00,,,0.00,Wunderground v.1.15,2013-01-02 16:20:00,
2013-01-02 11:21:00,77.7,68.7,30.06,NE,37,0.0,2.0,74,0.00,,,0.00,Wunderground v.1.15,2013-01-02 16:21:00,
2013-01-02 11:22:00,77.8,68.8,30.06,ESE,104,0.0,2.0,74,0.00,,,0.00,Wunderground v.1.15,2013-01-02 16:22:00,
2013-01-02 11:25:00,78.1,69.1,30.06,SE,135,4.0,5.0,74,0.00,,,0.00,Wunderground v.1.15,2013-01-02 16:25:00,
2013-01-02 11:26:00,78.0,68.6,30.06,SSE,150,2.0,5.0,73,0.00,,,0.00,Wunderground v.1.15,2013-01-02 16:26:00,
2013-01-02 11:27:00,77.9,68.5,30.06,East,85,2.0,5.0,73,0.00,,,0.00,Wunderground v.1.15,2013-01-02 16:27:00,
2013-01-02 11:30:00,77.7,68.4,30.06,ESE,114,3.0,3.0,73,0.00,,,0.00,Wunderground v.1.15,2013-01-02 16:30:00,
2013-01-02 11:31:00,77.7,69.1,30.06,ESE,111,1.0,3.0,75,0.00,,,0.00,Wunderground v.1.15,2013-01-02 16:31:00,
2013-01-02 11:32:00,77.9,69.3,30.06,SE,141,0.0,3.0,75,0.00,,,0.00,Wunderground v.1.15,2013-01-02 16:32:00,
2013-01-02 11:35:00,78.1,68.7,30.06,ESE,109,2.0,4.0,73,0.00,,,0.00,Wunderground v.1.15,2013-01-02 16:35:00,
2013-01-02 11:36:00,78.1,68.3,30.06,SE,136,1.0,5.0,72,0.00,,,0.00,Wunderground v.1.15,2013-01-02 16:36:00,
2013-01-02 11:37:00,78.0,68.6,30.06,SSE,152,1.0,5.0,73,0.00,,,0.00,Wunderground v.1.15,2013-01-02 16:37:00,
2013-01-02 11:40:00,78.1,68.3,30.05,ESE,108,4.0,4.0,72,0.00,,,0.00,Wunderground v.1.15,2013-01-02 16:40:00,
2013-01-02 11:42:00,77.9,68.1,30.05,SSW,200,2.0,4.0,72,0.00,,,0.00,Wunderground v.1.15,2013-01-02 16:42:00,
2013-01-02 11:45:00,77.9,68.1,30.05,SE,141,1.0,4.0,72,0.00,,,0.00,Wunderground v.1.15,2013-01-02 16:45:00,
2013-01-02 11:46:00,77.9,68.5,30.05,NNW,342,0.0,4.0,73,0.00,,,0.00,Wunderground v.1.15,2013-01-02 16:46:00,
2013-01-02 11:47:00,78.1,68.7,30.05,SSE,167,0.0,4.0,73,0.00,,,0.00,Wunderground v.1.15,2013-01-02 16:47:00,
2013-01-02 11:48:00,78.1,68.7,30.05,ESE,115,2.0,4.0,73,0.00,,,0.00,Wunderground v.1.15,2013-01-02 16:48:00,
2013-01-02 11:50:00,78.4,68.2,30.05,SSW,204,1.0,4.0,71,0.00,,,0.00,Wunderground v.1.15,2013-01-02 16:50:00,
2013-01-02 11:51:00,78.4,68.6,30.05,ENE,75,1.0,4.0,72,0.00,,,0.00,Wunderground v.1.15,2013-01-02 16:51:00,
2013-01-02 11:52:00,78.5,68.3,30.05,ESE,106,3.0,4.0,71,0.00,,,0.00,Wunderground v.1.15,2013-01-02 16:52:00,
2013-01-02 11:53:00,78.6,68.0,30.04,North,356,3.0,4.0,70,0.00,,,0.00,Wunderground v.1.15,2013-01-02 16:53:00,
2013-01-02 11:55:00,78.7,68.1,30.04,ESE,120,2.0,4.0,70,0.00,,,0.00,Wunderground v.1.15,2013-01-02 16:55:00,
2013-01-02 11:56:00,78.7,68.1,30.04,SSE,148,2.0,4.0,70,0.00,,,0.00,Wunderground v.1.15,2013-01-02 16:56:00,
2013-01-02 11:57:00,78.8,68.2,30.04,ESE,111,2.0,5.0,70,0.00,,,0.00,Wunderground v.1.15,2013-01-02 16:57:00,
2013-01-02 11:58:00,78.8,68.2,30.04,East,96,2.0,5.0,70,0.00,,,0.00,Wunderground v.1.15,2013-01-02 16:58:00,
2013-01-02 12:01:00,78.8,68.2,30.04,SE,144,2.0,3.0,70,0.00,,,0.00,Wunderground v.1.15,2013-01-02 17:01:00,
2013-01-02 12:02:00,78.9,68.3,30.04,SE,129,0.0,3.0,70,0.00,,,0.00,Wunderground v.1.15,2013-01-02 17:02:00,
2013-01-02 12:03:00,79.0,68.4,30.04,ESE,109,2.0,6.0,70,0.00,,,0.00,Wunderground v.1.15,2013-01-02 17:03:00,
2013-01-02 12:06:00,78.9,67.9,30.04,SSE,150,6.0,6.0,69,0.00,,,0.00,Wunderground v.1.15,2013-01-02 17:06:00,
2013-01-02 12:07:00,78.7,68.1,30.04,SE,141,2.0,6.0,70,0.00,,,0.00,Wunderground v.1.15,2013-01-02 17:07:00,
2013-01-02 12:08:00,78.6,68.0,30.04,ESE,121,1.0,6.0,70,0.00,,,0.00,Wunderground v.1.15,2013-01-02 17:08:00,
2013-01-02 12:11:00,78.5,68.3,30.03,SW,221,4.0,7.0,71,0.00,,,0.00,Wunderground v.1.15,2013-01-02 17:11:00,
2013-01-02 12:13:00,78.5,68.3,30.03,East,89,0.0,7.0,71,0.00,,,0.00,Wunderground v.1.15,2013-01-02 17:13:00,
2013-01-02 12:14:00,78.6,68.4,30.03,WSW,258,1.0,7.0,71,0.00,,,0.00,Wunderground v.1.15,2013-01-02 17:14:00,
2013-01-02 12:16:00,78.8,68.6,30.03,ENE,72,3.0,7.0,71,0.00,,,0.00,Wunderground v.1.15,2013-01-02 17:16:00,
2013-01-02 12:17:00,78.7,68.1,30.03,ESE,105,1.0,7.0,70,0.00,,,0.00,Wunderground v.1.15,2013-01-02 17:17:00,
2013-01-02 12:18:00,78.7,68.1,30.03,SSE,167,0.0,7.0,70,0.00,,,0.00,Wunderground v.1.15,2013-01-02 17:18:00,
2013-01-02 12:19:00,78.7,68.1,30.03,SE,141,1.0,7.0,70,0.00,,,0.00,Wunderground v.1.15,2013-01-02 17:19:00,
2013-01-02 12:21:00,78.7,68.5,30.03,SW,235,0.0,3.0,71,0.00,,,0.00,Wunderground v.1.15,2013-01-02 17:21:00,
2013-01-02 12:22:00,78.7,68.5,30.03,SE,127,2.0,3.0,71,0.00,,,0.00,Wunderground v.1.15,2013-01-02 17:22:00,
2013-01-02 12:23:00,78.8,68.6,30.03,ENE,72,0.0,3.0,71,0.00,,,0.00,Wunderground v.1.15,2013-01-02 17:23:00,
2013-01-02 12:24:00,79.0,68.8,30.03,East,86,2.0,3.0,71,0.00,,,0.00,Wunderground v.1.15,2013-01-02 17:24:00,
2013-01-02 12:26:00,79.0,68.8,30.03,South,172,4.0,5.0,71,0.00,,,0.00,Wunderground v.1.15,2013-01-02 17:26:00,
2013-01-02 12:27:00,79.0,68.4,30.03,South,170,2.0,5.0,70,0.00,,,0.00,Wunderground v.1.15,2013-01-02 17:27:00,
2013-01-02 12:28:00,79.0,68.4,30.03,ESE,105,3.0,6.0,70,0.00,,,0.00,Wunderground v.1.15,2013-01-02 17:28:00,
2013-01-02 12:30:00,78.8,68.6,30.03,SE,141,1.0,3.0,71,0.00,,,0.00,Wunderground v.1.15,2013-01-02 17:30:00,
2013-01-02 12:31:00,78.8,69.0,30.03,SSE,156,1.0,3.0,72,0.00,,,0.00,Wunderground v.1.15,2013-01-02 17:31:00,
2013-01-02 12:32:00,78.8,68.6,30.03,ENE,73,1.0,3.0,71,0.00,,,0.00,Wunderground v.1.15,2013-01-02 17:32:00,
2013-01-02 12:33:00,78.8,68.6,30.03,SSW,200,2.0,5.0,71,0.00,,,0.00,Wunderground v.1.15,2013-01-02 17:33:00,
2013-01-02 12:35:00,78.7,68.5,30.03,SSE,147,1.0,5.0,71,0.00,,,0.00,Wunderground v.1.15,2013-01-02 17:35:00,
2013-01-02 12:37:00,78.6,68.8,30.03,SSE,158,3.0,5.0,72,0.00,,,0.00,Wunderground v.1.15,2013-01-02 17:37:00,
2013-01-02 12:38:00,78.6,68.8,30.03,South,179,2.0,5.0,72,0.00,,,0.00,Wunderground v.1.15,2013-01-02 17:38:00,
2013-01-02 12:40:00,78.8,69.0,30.03,NNW,340,1.0,3.0,72,0.00,,,0.00,Wunderground v.1.15,2013-01-02 17:40:00,
2013-01-02 12:42:00,78.9,68.3,30.03,SE,146,2.0,4.0,70,0.00,,,0.00,Wunderground v.1.15,2013-01-02 17:42:00,
2013-01-02 12:43:00,78.9,68.7,30.03,ESE,119,3.0,4.0,71,0.00,,,0.00,Wunderground v.1.15,2013-01-02 17:43:00,
2013-01-02 12:45:00,79.0,68.4,30.02,South,184,1.0,5.0,70,0.00,,,0.00,Wunderground v.1.15,2013-01-02 17:45:00,
2013-01-02 12:47:00,79.0,68.8,30.02,ENE,68,1.0,5.0,71,0.00,,,0.00,Wunderground v.1.15,2013-01-02 17:47:00,
2013-01-02 12:48:00,79.0,68.8,30.02,South,191,3.0,5.0,71,0.00,,,0.00,Wunderground v.1.15,2013-01-02 17:48:00,
2013-01-02 12:50:00,78.9,68.7,30.02,SE,124,2.0,2.0,71,0.00,,,0.00,Wunderground v.1.15,2013-01-02 17:50:00,
2013-01-02 12:52:00,78.9,69.1,30.02,ESE,120,3.0,4.0,72,0.00,,,0.00,Wunderground v.1.15,2013-01-02 17:52:00,
2013-01-02 12:53:00,78.9,68.7,30.02,South,174,3.0,4.0,71,0.00,,,0.00,Wunderground v.1.15,2013-01-02 17:53:00,
2013-01-02 12:55:00,78.9,68.7,30.02,SSE,150,3.0,6.0,71,0.00,,,0.00,Wunderground v.1.15,2013-01-02 17:55:00,
2013-01-02 12:57:00,79.0,68.8,30.02,ESE,116,1.0,6.0,71,0.00,,,0.00,Wunderground v.1.15,2013-01-02 17:57:00,
2013-01-02 12:58:00,79.0,68.8,30.02,East,96,1.0,6.0,71,0.00,,,0.00,Wunderground v.1.15,2013-01-02 17:58:00,
2013-01-02 13:00:00,79.3,69.1,30.02,SE,135,1.0,4.0,71,0.00,,,0.00,Wunderground v.1.15,2013-01-02 18:00:00,
2013-01-02 13:03:00,79.3,68.7,30.02,ESE,113,1.0,5.0,70,0.00,,,0.00,Wunderground v.1.15,2013-01-02 18:03:00,
2013-01-02 13:04:00,79.3,68.7,30.02,SE,141,2.0,5.0,70,0.00,,,0.00,Wunderground v.1.15,2013-01-02 18:04:00,
2013-01-02 13:05:00,79.2,69.0,30.02,SSE,164,1.0,5.0,71,0.00,,,0.00,Wunderground v.1.15,2013-01-02 18:05:00,
2013-01-02 13:08:00,79.2,69.0,30.02,ESE,122,0.0,5.0,71,0.00,,,0.00,Wunderground v.1.15,2013-01-02 18:08:00,
2013-01-02 13:09:00,79.3,69.1,30.02,SE,146,1.0,5.0,71,0.00,,,0.00,Wunderground v.1.15,2013-01-02 18:09:00,
2013-01-02 13:10:00,79.3,68.7,30.02,ESE,108,4.0,4.0,70,0.00,,,0.00,Wunderground v.1.15,2013-01-02 18:10:00,
2013-01-02 13:13:00,79.0,68.8,30.01,SE,124,2.0,4.0,71,0.00,,,0.00,Wunderground v.1.15,2013-01-02 18:13:00,
2013-01-02 13:14:00,79.0,68.8,30.01,SE,133,4.0,4.0,71,0.00,,,0.00,Wunderground v.1.15,2013-01-02 18:14:00,
2013-01-02 13:16:00,79.0,69.2,30.01,SSE,156,0.0,4.0,72,0.00,,,0.00,Wunderground v.1.15,2013-01-02 18:16:00,
2013-01-02 13:18:00,79.0,68.8,30.01,SE,141,1.0,4.0,71,0.00,,,0.00,Wunderground v.1.15,2013-01-02 18:18:00,
2013-01-02 13:19:00,79.0,68.8,30.01,SSE,150,1.0,4.0,71,0.00,,,0.00,Wunderground v.1.15,2013-01-02 18:19:00,
2013-01-02 13:21:00,78.9,68.7,30.01,SSE,155,1.0,3.0,71,0.00,,,0.00,Wunderground v.1.15,2013-01-02 18:21:00,
2013-01-02 13:23:00,79.0,69.2,30.01,NNE,30,2.0,6.0,72,0.00,,,0.00,Wunderground v.1.15,2013-01-02 18:23:00,
2013-01-02 13:24:00,79.1,69.3,30.01,SSE,158,0.0,6.0,72,0.00,,,0.00,Wunderground v.1.15,2013-01-02 18:24:00,
2013-01-02 13:26:00,79.4,69.2,30.01,SSE,163,1.0,6.0,71,0.00,,,0.00,Wunderground v.1.15,2013-01-02 18:26:00,
2013-01-02 13:29:00,79.3,68.7,30.01,East,89,1.0,7.0,70,0.00,,,0.00,Wunderground v.1.15,2013-01-02 18:29:00,
2013-01-02 13:30:00,79.2,69.0,30.01,ENE,61,1.0,2.0,71,0.00,,,0.00,Wunderground v.1.15,2013-01-02 18:30:00,
2013-01-02 13:31:00,79.2,69.0,30.01,ESE,117,2.0,2.0,71,0.00,,,0.00,Wunderground v.1.15,2013-01-02 18:31:00,
2013-01-02 13:34:00,79.4,69.2,30.01,SE,126,1.0,4.0,71,0.00,,,0.00,Wunderground v.1.15,2013-01-02 18:34:00,
2013-01-02 13:35:00,79.5,69.3,30.01,WSW,257,1.0,4.0,71,0.00,,,0.00,Wunderground v.1.15,2013-01-02 18:35:00,
2013-01-02 13:36:00,79.5,69.3,30.01,ESE,103,2.0,4.0,71,0.00,,,0.00,Wunderground v.1.15,2013-01-02 18:36:00,
2013-01-02 13:39:00,79.6,69.8,30.01,NW,322,0.0,4.0,72,0.00,,,0.00,Wunderground v.1.15,2013-01-02 18:39:00,
2013-01-02 13:41:00,79.9,70.1,30.01,SSE,155,0.0,3.0,72,0.00,,,0.00,Wunderground v.1.15,2013-01-02 18:41:00,
2013-01-02 13:44:00,79.8,69.6,30.01,NNW,348,0.0,4.0,71,0.00,,,0.00,Wunderground v.1.15,2013-01-02 18:44:00,
2013-01-02 13:46:00,79.7,68.6,30.01,ESE,123,2.0,4.0,69,0.00,,,0.00,Wunderground v.1.15,2013-01-02 18:46:00,
2013-01-02 13:47:00,79.6,68.5,30.01,West,269,0.0,4.0,69,0.00,,,0.00,Wunderground v.1.15,2013-01-02 18:47:00,
2013-01-02 13:49:00,79.6,69.0,30.01,SSE,152,1.0,4.0,70,0.00,,,0.00,Wunderground v.1.15,2013-01-02 18:49:00,
2013-01-02 13:51:00,79.3,68.7,30.01,SE,136,2.0,4.0,70,0.00,,,0.00,Wunderground v.1.15,2013-01-02 18:51:00,
2013-01-02 13:52:00,79.2,68.6,30.01,SSE,148,2.0,4.0,70,0.00,,,0.00,Wunderground v.1.15,2013-01-02 18:52:00,
2013-01-02 13:54:00,78.7,68.5,30.01,East,101,0.0,4.0,71,0.00,,,0.00,Wunderground v.1.15,2013-01-02 18:54:00,
2013-01-02 13:56:00,78.6,68.8,30.01,SE,146,1.0,4.0,72,0.00,,,0.00,Wunderground v.1.15,2013-01-02 18:56:00,
2013-01-02 13:57:00,78.6,68.8,30.01,SSE,155,2.0,4.0,72,0.00,,,0.00,Wunderground v.1.15,2013-01-02 18:57:00,
2013-01-02 14:00:00,78.4,69.0,30.01,SE,137,0.0,2.0,73,0.00,,,0.00,Wunderground v.1.15,2013-01-02 19:00:00,
2013-01-02 14:01:00,78.4,68.6,30.01,North,359,1.0,2.0,72,0.00,,,0.00,Wunderground v.1.15,2013-01-02 19:01:00,
2013-01-02 14:02:00,78.4,68.6,30.01,SSW,195,1.0,3.0,72,0.00,,,0.00,Wunderground v.1.15,2013-01-02 19:02:00,
2013-01-02 14:05:00,78.3,68.5,30.01,East,93,1.0,4.0,72,0.00,,,0.00,Wunderground v.1.15,2013-01-02 19:05:00,
2013-01-02 14:06:00,78.2,68.0,30.01,NE,34,0.0,4.0,71,0.00,,,0.00,Wunderground v.1.15,2013-01-02 19:06:00,
2013-01-02 14:07:00,78.1,68.3,30.01,NNE,17,0.0,4.0,72,0.00,,,0.00,Wunderground v.1.15,2013-01-02 19:07:00,
2013-01-02 14:10:00,77.9,68.1,30.01,SSE,147,2.0,2.0,72,0.00,,,0.00,Wunderground v.1.15,2013-01-02 19:10:00,
2013-01-02 14:12:00,78.0,68.2,30.01,SE,142,3.0,6.0,72,0.00,,,0.00,Wunderground v.1.15,2013-01-02 19:12:00,
2013-01-02 14:15:00,77.9,68.1,30.01,ESE,114,2.0,6.0,72,0.00,,,0.00,Wunderground v.1.15,2013-01-02 19:15:00,
2013-01-02 14:16:00,77.9,68.1,30.01,ESE,117,0.0,6.0,72,0.00,,,0.00,Wunderground v.1.15,2013-01-02 19:16:00,
2013-01-02 14:17:00,77.8,68.4,30.01,West,279,3.0,6.0,73,0.00,,,0.00,Wunderground v.1.15,2013-01-02 19:17:00,
2013-01-02 14:20:00,77.5,68.2,30.01,South,188,3.0,3.0,73,0.00,,,0.00,Wunderground v.1.15,2013-01-02 19:20:00,
2013-01-02 14:21:00,77.5,68.2,30.01,SSE,154,0.0,3.0,73,0.00,,,0.00,Wunderground v.1.15,2013-01-02 19:21:00,
2013-01-02 14:22:00,77.6,68.3,30.01,South,181,1.0,3.0,73,0.00,,,0.00,Wunderground v.1.15,2013-01-02 19:22:00,
2013-01-02 14:26:00,78.0,68.6,30.00,SSE,155,1.0,5.0,73,0.00,,,0.00,Wunderground v.1.15,2013-01-02 19:26:00,
2013-01-02 14:27:00,78.0,68.6,30.00,ESE,120,2.0,5.0,73,0.00,,,0.00,Wunderground v.1.15,2013-01-02 19:27:00,
2013-01-02 14:28:00,78.1,68.3,30.00,SSE,155,2.0,5.0,72,0.00,,,0.00,Wunderground v.1.15,2013-01-02 19:28:00,
2013-01-02 14:31:00,77.9,68.1,30.00,SSW,211,2.0,3.0,72,0.00,,,0.00,Wunderground v.1.15,2013-01-02 19:31:00,
2013-01-02 14:32:00,77.8,68.4,30.00,South,170,2.0,3.0,73,0.00,,,0.00,Wunderground v.1.15,2013-01-02 19:32:00,
2013-01-02 14:33:00,77.6,68.3,30.00,South,190,1.0,3.0,73,0.00,,,0.00,Wunderground v.1.15,2013-01-02 19:33:00,
2013-01-02 14:36:00,77.5,68.2,30.00,SSE,160,2.0,4.0,73,0.00,,,0.00,Wunderground v.1.15,2013-01-02 19:36:00,
2013-01-02 14:37:00,77.5,68.6,30.00,East,86,1.0,4.0,74,0.00,,,0.00,Wunderground v.1.15,2013-01-02 19:37:00,
2013-01-02 14:38:00,77.6,68.7,30.00,ESE,120,2.0,4.0,74,0.00,,,0.00,Wunderground v.1.15,2013-01-02 19:38:00,
2013-01-02 14:41:00,78.0,69.4,30.00,SE,141,2.0,4.0,75,0.00,,,0.00,Wunderground v.1.15,2013-01-02 19:41:00,
2013-01-02 14:42:00,78.0,69.0,30.00,NNW,344,1.0,4.0,74,0.00,,,0.00,Wunderground v.1.15,2013-01-02 19:42:00,
2013-01-02 14:43:00,78.0,68.6,30.00,SSE,152,4.0,4.0,73,0.00,,,0.00,Wunderground v.1.15,2013-01-02 19:43:00,
2013-01-02 14:47:00,77.4,68.5,30.00,ESE,123,2.0,4.0,74,0.00,,,0.00,Wunderground v.1.15,2013-01-02 19:47:00,
2013-01-02 14:48:00,77.1,68.2,30.00,NNW,343,1.0,5.0,74,0.00,,,0.00,Wunderground v.1.15,2013-01-02 19:48:00,
2013-01-02 14:52:00,76.9,68.4,30.00,SSE,165,1.0,5.0,75,0.00,,,0.00,Wunderground v.1.15,2013-01-02 19:52:00,
2013-01-02 14:53:00,76.9,68.4,30.00,ESE,107,1.0,5.0,75,0.00,,,0.00,Wunderground v.1.15,2013-01-02 19:53:00,
2013-01-02 14:57:00,76.8,68.7,30.00,South,173,0.0,5.0,76,0.00,,,0.00,Wunderground v.1.15,2013-01-02 19:57:00,
2013-01-02 14:58:00,76.8,68.7,30.00,East,100,0.0,5.0,76,0.00,,,0.00,Wunderground v.1.15,2013-01-02 19:58:00,
2013-01-02 14:59:00,76.8,68.7,30.00,West,281,1.0,5.0,76,0.00,,,0.00,Wunderground v.1.15,2013-01-02 19:59:00,
2013-01-02 15:02:00,76.7,68.6,30.00,East,83,2.0,4.0,76,0.00,,,0.00,Wunderground v.1.15,2013-01-02 20:02:00,
2013-01-02 15:03:00,76.7,68.6,30.00,ESE,108,3.0,4.0,76,0.00,,,0.00,Wunderground v.1.15,2013-01-02 20:03:00,
2013-01-02 15:04:00,76.7,68.6,30.00,South,169,1.0,4.0,76,0.00,,,0.00,Wunderground v.1.15,2013-01-02 20:04:00,
2013-01-02 15:07:00,76.7,68.6,30.00,SE,140,2.0,4.0,76,0.00,,,0.00,Wunderground v.1.15,2013-01-02 20:07:00,
2013-01-02 15:08:00,76.7,68.6,30.00,SE,126,0.0,4.0,76,0.00,,,0.00,Wunderground v.1.15,2013-01-02 20:08:00,
2013-01-02 15:09:00,76.8,68.7,30.00,SE,124,0.0,1.0,76,0.00,,,0.00,Wunderground v.1.15,2013-01-02 20:09:00,
2013-01-02 15:12:00,76.9,68.8,30.00,SE,141,1.0,3.0,76,0.00,,,0.00,Wunderground v.1.15,2013-01-02 20:12:00,
2013-01-02 15:13:00,76.9,68.8,30.00,South,179,1.0,3.0,76,0.00,,,0.00,Wunderground v.1.15,2013-01-02 20:13:00,
2013-01-02 15:14:00,77.0,68.9,30.00,SSE,158,1.0,3.0,76,0.00,,,0.00,Wunderground v.1.15,2013-01-02 20:14:00,
2013-01-02 15:18:00,76.7,68.6,30.01,SE,131,1.0,3.0,76,0.00,,,0.00,Wunderground v.1.15,2013-01-02 20:18:00,
2013-01-02 15:19:00,76.4,68.3,30.01,ENE,68,0.0,1.0,76,0.00,,,0.00,Wunderground v.1.15,2013-01-02 20:19:00,
2013-01-02 15:23:00,76.2,68.5,30.01,South,178,0.0,2.0,77,0.00,,,0.00,Wunderground v.1.15,2013-01-02 20:23:00,
2013-01-02 15:24:00,76.2,68.8,30.01,SSE,159,2.0,2.0,78,0.00,,,0.00,Wunderground v.1.15,2013-01-02 20:24:00,
2013-01-02 15:28:00,76.2,68.5,30.01,North,360,0.0,2.0,77,0.00,,,0.00,Wunderground v.1.15,2013-01-02 20:28:00,
2013-01-02 15:30:00,76.1,68.7,30.01,ESE,102,0.0,1.0,78,0.00,,,0.00,Wunderground v.1.15,2013-01-02 20:30:00,
2013-01-02 15:33:00,75.9,68.2,30.01,SE,126,1.0,3.0,77,0.00,,,0.00,Wunderground v.1.15,2013-01-02 20:33:00,
2013-01-02 15:35:00,75.8,68.4,30.01,SE,139,0.0,3.0,78,0.00,,,0.00,Wunderground v.1.15,2013-01-02 20:35:00,
2013-01-02 15:38:00,75.6,68.3,30.01,South,184,1.0,4.0,78,0.00,,,0.00,Wunderground v.1.15,2013-01-02 20:38:00,
2013-01-02 15:39:00,75.6,68.3,30.01,ESE,121,0.0,4.0,78,0.00,,,0.00,Wunderground v.1.15,2013-01-02 20:39:00,
2013-01-02 15:40:00,75.5,68.5,30.01,ESE,115,1.0,1.0,79,0.00,,,0.00,Wunderground v.1.15,2013-01-02 20:40:00,
2013-01-02 15:43:00,75.4,68.4,30.01,South,171,1.0,2.0,79,0.00,,,0.00,Wunderground v.1.15,2013-01-02 20:43:00,
2013-01-02 15:44:00,75.4,68.4,30.01,NNW,345,0.0,3.0,79,0.00,,,0.00,Wunderground v.1.15,2013-01-02 20:44:00,
2013-01-02 15:45:00,75.3,68.3,30.01,SE,126,0.0,3.0,79,0.00,,,0.00,Wunderground v.1.15,2013-01-02 20:45:00,
2013-01-02 15:48:00,75.4,68.4,30.01,SE,141,0.0,5.0,79,0.00,,,0.00,Wunderground v.1.15,2013-01-02 20:48:00,
2013-01-02 15:49:00,75.4,68.4,30.01,SE,141,1.0,5.0,79,0.00,,,0.00,Wunderground v.1.15,2013-01-02 20:49:00,
2013-01-02 15:50:00,75.4,68.1,30.01,SE,140,0.0,3.0,78,0.00,,,0.00,Wunderground v.1.15,2013-01-02 20:50:00,
2013-01-02 15:53:00,75.2,68.2,30.01,East,101,1.0,3.0,79,0.00,,,0.00,Wunderground v.1.15,2013-01-02 20:53:00,
2013-01-02 15:54:00,75.1,68.1,30.01,WNW,291,0.0,3.0,79,0.00,,,0.00,Wunderground v.1.15,2013-01-02 20:54:00,
2013-01-02 15:55:00,75.1,68.1,30.01,West,278,0.0,3.0,79,0.00,,,0.00,Wunderground v.1.15,2013-01-02 20:55:00,
2013-01-02 15:58:00,74.9,67.9,30.01,SE,136,1.0,3.0,79,0.00,,,0.00,Wunderground v.1.15,2013-01-02 20:58:00,
2013-01-02 16:00:00,74.7,68.1,30.01,SSE,162,0.0,1.0,80,0.00,,,0.00,Wunderground v.1.15,2013-01-02 21:00:00,
2013-01-02 16:03:00,74.3,67.7,30.01,East,82,1.0,2.0,80,0.00,,,0.00,Wunderground v.1.15,2013-01-02 21:03:00,
2013-01-02 16:05:00,74.1,67.9,30.01,SSE,150,0.0,2.0,81,0.00,,,0.00,Wunderground v.1.15,2013-01-02 21:05:00,
2013-01-02 16:06:00,74.0,67.8,30.01,SE,131,1.0,2.0,81,0.00,,,0.00,Wunderground v.1.15,2013-01-02 21:06:00,
2013-01-02 16:08:00,73.7,67.5,30.01,SE,127,1.0,2.0,81,0.00,,,0.00,Wunderground v.1.15,2013-01-02 21:08:00,
2013-01-02 16:09:00,73.7,67.9,30.01,East,99,1.0,2.0,82,0.00,,,0.00,Wunderground v.1.15,2013-01-02 21:09:00,
2013-01-02 16:10:00,73.5,67.7,30.01,SE,124,1.0,2.0,82,0.00,,,0.00,Wunderground v.1.15,2013-01-02 21:10:00,
2013-01-02 16:11:00,73.3,67.5,30.01,SSE,159,1.0,2.0,82,0.00,,,0.00,Wunderground v.1.15,2013-01-02 21:11:00,
2013-01-02 16:13:00,72.9,67.4,30.01,SE,124,0.0,2.0,83,0.00,,,0.00,Wunderground v.1.15,2013-01-02 21:13:00,
2013-01-02 16:14:00,72.8,67.3,30.01,SE,124,0.0,2.0,83,0.00,,,0.00,Wunderground v.1.15,2013-01-02 21:14:00,
2013-01-02 16:15:00,72.7,67.6,30.01,SSE,159,0.0,2.0,84,0.00,,,0.00,Wunderground v.1.15,2013-01-02 21:15:00,
2013-01-02 16:33:00,71.7,67.3,30.02,South,171,2.0,2.0,86,0.00,,,0.00,Wunderground v.1.15,2013-01-02 21:33:00,
2013-01-02 16:38:00,71.5,67.4,30.02,ENE,60,1.0,2.0,87,0.00,,,0.00,Wunderground v.1.15,2013-01-02 21:38:00,
2013-01-02 16:43:00,71.5,67.4,30.02,East,89,0.0,1.0,87,0.00,,,0.00,Wunderground v.1.15,2013-01-02 21:43:00,
2013-01-02 16:48:00,71.6,67.5,30.02,NE,52,0.0,1.0,87,0.00,,,0.00,Wunderground v.1.15,2013-01-02 21:48:00,
2013-01-02 16:53:00,71.4,67.3,30.02,SE,136,0.0,1.0,87,0.00,,,0.00,Wunderground v.1.15,2013-01-02 21:53:00,
2013-01-02 16:54:00,71.4,67.3,30.02,WSW,240,2.0,2.0,87,0.00,,,0.00,Wunderground v.1.15,2013-01-02 21:54:00,
2013-01-02 16:58:00,71.1,67.0,30.02,WNW,298,0.0,3.0,87,0.00,,,0.00,Wunderground v.1.15,2013-01-02 21:58:00,
2013-01-02 16:59:00,71.0,67.3,30.02,WNW,301,0.0,3.0,88,0.00,,,0.00,Wunderground v.1.15,2013-01-02 21:59:00,
2013-01-02 17:03:00,70.9,67.2,30.02,SSW,195,0.0,2.0,88,0.00,,,0.00,Wunderground v.1.15,2013-01-02 22:03:00,
2013-01-02 17:04:00,70.8,67.1,30.02,ENE,72,0.0,2.0,88,0.00,,,0.00,Wunderground v.1.15,2013-01-02 22:04:00,
2013-01-02 17:08:00,70.7,67.0,30.02,SE,133,0.0,2.0,88,0.00,,,0.00,Wunderground v.1.15,2013-01-02 22:08:00,
2013-01-02 17:09:00,70.7,67.0,30.02,SE,131,0.0,2.0,88,0.00,,,0.00,Wunderground v.1.15,2013-01-02 22:09:00,
2013-01-02 17:13:00,70.5,67.1,30.02,SE,127,0.0,0.0,89,0.00,,,0.00,Wunderground v.1.15,2013-01-02 22:13:00,
2013-01-02 17:14:00,70.5,67.1,30.02,SE,127,0.0,0.0,89,0.00,,,0.00,Wunderground v.1.15,2013-01-02 22:14:00,
2013-01-02 17:18:00,70.4,67.0,30.02,South,175,0.0,1.0,89,0.00,,,0.00,Wunderground v.1.15,2013-01-02 22:18:00,
2013-01-02 17:19:00,70.4,67.0,30.02,West,275,0.0,1.0,89,0.00,,,0.00,Wunderground v.1.15,2013-01-02 22:19:00,
2013-01-02 17:23:00,70.3,67.2,30.02,West,275,0.0,1.0,90,0.00,,,0.00,Wunderground v.1.15,2013-01-02 22:23:00,
2013-01-02 17:24:00,70.2,67.1,30.02,SE,124,1.0,1.0,90,0.00,,,0.00,Wunderground v.1.15,2013-01-02 22:24:00,
2013-01-02 17:25:00,70.2,67.1,30.02,East,96,0.0,1.0,90,0.00,,,0.00,Wunderground v.1.15,2013-01-02 22:25:00,
2013-01-02 17:28:00,70.1,67.0,30.02,South,182,0.0,1.0,90,0.00,,,0.00,Wunderground v.1.15,2013-01-02 22:28:00,
2013-01-02 17:29:00,70.1,67.0,30.03,South,176,0.0,1.0,90,0.00,,,0.00,Wunderground v.1.15,2013-01-02 22:29:00,
2013-01-02 17:30:00,70.1,67.0,30.02,South,174,0.0,0.0,90,0.00,,,0.00,Wunderground v.1.15,2013-01-02 22:30:00,
2013-01-02 17:34:00,69.9,66.8,30.03,ESE,108,0.0,1.0,90,0.00,,,0.00,Wunderground v.1.15,2013-01-02 22:34:00,
2013-01-02 17:35:00,69.9,66.8,30.03,ESE,109,0.0,1.0,90,0.00,,,0.00,Wunderground v.1.15,2013-01-02 22:35:00,
2013-01-02 17:39:00,69.7,67.0,30.03,ESE,107,0.0,1.0,91,0.00,,,0.00,Wunderground v.1.15,2013-01-02 22:39:00,
2013-01-02 17:40:00,69.6,66.9,30.03,ESE,107,0.0,0.0,91,0.00,,,0.00,Wunderground v.1.15,2013-01-02 22:40:00,
2013-01-02 17:44:00,69.5,66.8,30.02,ESE,107,0.0,0.0,91,0.00,,,0.00,Wunderground v.1.15,2013-01-02 22:44:00,
2013-01-02 17:45:00,69.5,66.8,30.03,ESE,107,0.0,0.0,91,0.00,,,0.00,Wunderground v.1.15,2013-01-02 22:45:00,
2013-01-02 17:49:00,69.3,66.6,30.03,SSE,159,1.0,1.0,91,0.00,,,0.00,Wunderground v.1.15,2013-01-02 22:49:00,
2013-01-02 17:50:00,69.3,66.9,30.03,SSE,159,0.0,0.0,92,0.00,,,0.00,Wunderground v.1.15,2013-01-02 22:50:00,
2013-01-02 17:54:00,69.1,66.7,30.03,SE,146,0.0,1.0,92,0.00,,,0.00,Wunderground v.1.15,2013-01-02 22:54:00,
2013-01-02 17:55:00,69.1,66.7,30.03,SE,146,0.0,1.0,92,0.00,,,0.00,Wunderground v.1.15,2013-01-02 22:55:00,
2013-01-02 18:00:00,68.8,66.4,30.03,SE,146,0.0,0.0,92,0.00,,,0.00,Wunderground v.1.15,2013-01-02 23:00:00,
2013-01-02 18:05:00,68.6,66.2,30.03,SE,146,0.0,0.0,92,0.00,,,0.00,Wunderground v.1.15,2013-01-02 23:05:00,
2013-01-02 18:06:00,68.5,66.4,30.03,SE,146,0.0,0.0,93,0.00,,,0.00,Wunderground v.1.15,2013-01-02 23:06:00,
2013-01-02 18:10:00,68.4,66.3,30.03,SE,146,0.0,0.0,93,0.00,,,0.00,Wunderground v.1.15,2013-01-02 23:10:00,
2013-01-02 18:11:00,68.3,66.2,30.03,SE,146,0.0,0.0,93,0.00,,,0.00,Wunderground v.1.15,2013-01-02 23:11:00,
2013-01-02 18:15:00,68.1,66.0,30.03,SE,143,0.0,0.0,93,0.00,,,0.00,Wunderground v.1.15,2013-01-02 23:15:00,
2013-01-02 18:16:00,68.1,66.0,30.03,SE,143,0.0,0.0,93,0.00,,,0.00,Wunderground v.1.15,2013-01-02 23:16:00,
2013-01-02 18:20:00,67.9,66.1,30.03,SE,143,0.0,0.0,94,0.00,,,0.00,Wunderground v.1.15,2013-01-02 23:20:00,
2013-01-02 18:21:00,67.9,66.1,30.03,SE,143,0.0,0.0,94,0.00,,,0.00,Wunderground v.1.15,2013-01-02 23:21:00,
2013-01-02 18:25:00,67.8,66.0,30.03,SE,143,1.0,1.0,94,0.00,,,0.00,Wunderground v.1.15,2013-01-02 23:25:00,
2013-01-02 18:26:00,67.8,66.0,30.03,SE,143,0.0,1.0,94,0.00,,,0.00,Wunderground v.1.15,2013-01-02 23:26:00,
2013-01-02 18:30:00,67.7,66.2,30.03,SE,144,0.0,0.0,95,0.00,,,0.00,Wunderground v.1.15,2013-01-02 23:30:00,
2013-01-02 18:31:00,67.7,65.9,30.03,SE,144,0.0,0.0,94,0.00,,,0.00,Wunderground v.1.15,2013-01-02 23:31:00,
2013-01-02 18:35:00,67.6,66.1,30.03,SE,143,0.0,1.0,95,0.00,,,0.00,Wunderground v.1.15,2013-01-02 23:35:00,
2013-01-02 18:36:00,67.6,66.1,30.03,SE,144,0.0,1.0,95,0.00,,,0.00,Wunderground v.1.15,2013-01-02 23:36:00,
2013-01-02 18:37:00,67.5,66.0,30.03,SE,144,0.0,1.0,95,0.00,,,0.00,Wunderground v.1.15,2013-01-02 23:37:00,
2013-01-02 18:41:00,67.5,66.0,30.04,SE,141,0.0,0.0,95,0.00,,,0.00,Wunderground v.1.15,2013-01-02 23:41:00,
2013-01-02 18:42:00,67.4,65.9,30.04,SE,141,0.0,0.0,95,0.00,,,0.00,Wunderground v.1.15,2013-01-02 23:42:00,
2013-01-02 18:46:00,67.4,65.9,30.04,NNE,15,0.0,1.0,95,0.00,,,0.00,Wunderground v.1.15,2013-01-02 23:46:00,
2013-01-02 18:47:00,67.4,65.9,30.04,NNE,15,0.0,1.0,95,0.00,,,0.00,Wunderground v.1.15,2013-01-02 23:47:00,
2013-01-02 18:51:00,67.3,65.8,30.04,NNE,15,0.0,0.0,95,0.00,,,0.00,Wunderground v.1.15,2013-01-02 23:51:00,
2013-01-02 18:52:00,67.3,65.8,30.04,North,356,0.0,0.0,95,0.00,,,0.00,Wunderground v.1.15,2013-01-02 23:52:00,
2013-01-02 18:56:00,67.3,66.1,30.04,North,356,0.0,1.0,96,0.00,,,0.00,Wunderground v.1.15,2013-01-02 23:56:00,
2013-01-02 18:57:00,67.3,66.1,30.04,North,356,0.0,1.0,96,0.00,,,0.00,Wunderground v.1.15,2013-01-02 23:57:00,
2013-01-02 19:01:00,67.3,66.1,30.04,North,356,0.0,0.0,96,0.00,,,0.00,Wunderground v.1.15,2013-01-03 00:01:00,
2013-01-02 19:02:00,67.3,66.1,30.04,North,356,0.0,0.0,96,0.00,,,0.00,Wunderground v.1.15,2013-01-03 00:02:00,
2013-01-02 19:07:00,67.2,66.0,30.04,ENE,67,0.0,0.0,96,0.00,,,0.00,Wunderground v.1.15,2013-01-03 00:07:00,
2013-01-02 19:12:00,67.1,65.9,30.04,ENE,67,0.0,0.0,96,0.00,,,0.00,Wunderground v.1.15,2013-01-03 00:12:00,
2013-01-02 19:17:00,67.1,65.9,30.05,ENE,67,0.0,0.0,96,0.00,,,0.00,Wunderground v.1.15,2013-01-03 00:17:00,
2013-01-02 19:22:00,67.0,65.8,30.05,NNE,26,0.0,1.0,96,0.00,,,0.00,Wunderground v.1.15,2013-01-03 00:22:00,
2013-01-02 19:27:00,67.0,65.8,30.04,NNE,21,0.0,1.0,96,0.00,,,0.00,Wunderground v.1.15,2013-01-03 00:27:00,
2013-01-02 19:28:00,66.9,65.7,30.04,NNE,21,0.0,1.0,96,0.00,,,0.00,Wunderground v.1.15,2013-01-03 00:28:00,
2013-01-02 19:33:00,66.9,65.7,30.05,NNE,21,0.0,0.0,96,0.00,,,0.00,Wunderground v.1.15,2013-01-03 00:33:00,
2013-01-02 19:34:00,66.9,65.7,30.05,NNE,21,0.0,0.0,96,0.00,,,0.00,Wunderground v.1.15,2013-01-03 00:34:00,
2013-01-02 19:38:00,66.8,65.6,30.05,NNE,23,0.0,0.0,96,0.00,,,0.00,Wunderground v.1.15,2013-01-03 00:38:00,
2013-01-02 19:39:00,66.8,65.6,30.05,NNE,23,0.0,0.0,96,0.00,,,0.00,Wunderground v.1.15,2013-01-03 00:39:00,
2013-01-02 19:43:00,66.7,65.5,30.05,NNE,23,0.0,0.0,96,0.00,,,0.00,Wunderground v.1.15,2013-01-03 00:43:00,
2013-01-02 19:44:00,66.7,65.5,30.05,NNE,23,0.0,0.0,96,0.00,,,0.00,Wunderground v.1.15,2013-01-03 00:44:00,
2013-01-02 19:48:00,66.6,65.4,30.05,NNE,23,0.0,0.0,96,0.00,,,0.00,Wunderground v.1.15,2013-01-03 00:48:00,
2013-01-02 19:49:00,66.6,65.4,30.05,NNE,23,0.0,0.0,96,0.00,,,0.00,Wunderground v.1.15,2013-01-03 00:49:00,
2013-01-02 19:53:00,66.5,65.3,30.05,NNE,23,0.0,0.0,96,0.00,,,0.00,Wunderground v.1.15,2013-01-03 00:53:00,
2013-01-02 19:54:00,66.5,65.3,30.05,NNE,23,0.0,0.0,96,0.00,,,0.00,Wunderground v.1.15,2013-01-03 00:54:00,
2013-01-02 19:58:00,66.3,65.1,30.05,NNE,23,0.0,0.0,96,0.00,,,0.00,Wunderground v.1.15,2013-01-03 00:58:00,
2013-01-02 19:59:00,66.3,65.1,30.05,NNE,23,0.0,0.0,96,0.00,,,0.00,Wunderground v.1.15,2013-01-03 00:59:00,
2013-01-02 20:03:00,66.2,65.0,30.05,NNE,23,0.0,0.0,96,0.00,,,0.00,Wunderground v.1.15,2013-01-03 01:03:00,
2013-01-02 20:04:00,66.1,64.9,30.05,NNE,23,0.0,0.0,96,0.00,,,0.00,Wunderground v.1.15,2013-01-03 01:04:00,
2013-01-02 20:08:00,65.9,64.7,30.05,NNE,23,0.0,0.0,96,0.00,,,0.00,Wunderground v.1.15,2013-01-03 01:08:00,
2013-01-02 20:09:00,65.9,64.7,30.05,NNE,23,0.0,0.0,96,0.00,,,0.00,Wunderground v.1.15,2013-01-03 01:09:00,
2013-01-02 20:13:00,65.8,64.6,30.06,NNE,23,0.0,0.0,96,0.00,,,0.00,Wunderground v.1.15,2013-01-03 01:13:00,
2013-01-02 20:14:00,65.8,64.9,30.06,NNE,23,0.0,0.0,97,0.00,,,0.00,Wunderground v.1.15,2013-01-03 01:14:00,
2013-01-02 20:18:00,65.6,64.4,30.06,NNE,23,0.0,0.0,96,0.00,,,0.00,Wunderground v.1.15,2013-01-03 01:18:00,
2013-01-02 20:19:00,65.6,64.4,30.06,NNE,23,0.0,0.0,96,0.00,,,0.00,Wunderground v.1.15,2013-01-03 01:19:00,
2013-01-02 20:24:00,65.3,64.1,30.06,NNE,23,0.0,0.0,96,0.00,,,0.00,Wunderground v.1.15,2013-01-03 01:24:00,
2013-01-02 20:25:00,65.2,64.0,30.06,NNE,23,0.0,0.0,96,0.00,,,0.00,Wunderground v.1.15,2013-01-03 01:25:00,
2013-01-02 20:29:00,64.9,63.7,30.06,NNE,23,0.0,0.0,96,0.00,,,0.00,Wunderground v.1.15,2013-01-03 01:29:00,
2013-01-02 20:30:00,64.8,63.6,30.06,NNE,23,0.0,0.0,96,0.00,,,0.00,Wunderground v.1.15,2013-01-03 01:30:00,
2013-01-02 20:34:00,64.7,63.8,30.06,NNE,23,0.0,0.0,97,0.00,,,0.00,Wunderground v.1.15,2013-01-03 01:34:00,
2013-01-02 20:35:00,64.7,63.8,30.06,NNE,23,0.0,0.0,97,0.00,,,0.00,Wunderground v.1.15,2013-01-03 01:35:00,
2013-01-02 20:39:00,64.5,63.6,30.06,NNE,23,0.0,0.0,97,0.00,,,0.00,Wunderground v.1.15,2013-01-03 01:39:00,
2013-01-02 20:40:00,64.5,63.3,30.06,NNE,23,0.0,0.0,96,0.00,,,0.00,Wunderground v.1.15,2013-01-03 01:40:00,
2013-01-02 20:44:00,64.2,63.0,30.06,NNE,23,0.0,0.0,96,0.00,,,0.00,Wunderground v.1.15,2013-01-03 01:44:00,
2013-01-02 20:45:00,64.2,63.0,30.06,NNE,23,0.0,0.0,96,0.00,,,0.00,Wunderground v.1.15,2013-01-03 01:45:00,
2013-01-02 20:49:00,64.3,63.4,30.06,NNE,23,0.0,0.0,97,0.00,,,0.00,Wunderground v.1.15,2013-01-03 01:49:00,
2013-01-02 20:50:00,64.3,63.4,30.06,NNE,23,0.0,0.0,97,0.00,,,0.00,Wunderground v.1.15,2013-01-03 01:50:00,
2013-01-02 20:54:00,64.4,63.5,30.06,NNE,23,0.0,0.0,97,0.00,,,0.00,Wunderground v.1.15,2013-01-03 01:54:00,
2013-01-02 20:55:00,64.4,63.5,30.06,NNE,23,0.0,0.0,97,0.00,,,0.00,Wunderground v.1.15,2013-01-03 01:55:00,
2013-01-02 20:59:00,64.2,63.3,30.06,NNE,23,0.0,0.0,97,0.00,,,0.00,Wunderground v.1.15,2013-01-03 01:59:00,
2013-01-02 21:00:00,64.2,63.3,30.06,NNE,23,0.0,0.0,97,0.00,,,0.00,Wunderground v.1.15,2013-01-03 02:00:00,
2013-01-02 21:04:00,64.1,63.2,30.06,NNE,23,0.0,0.0,97,0.00,,,0.00,Wunderground v.1.15,2013-01-03 02:04:00,
2013-01-02 21:05:00,64.1,63.2,30.06,NNE,23,0.0,0.0,97,0.00,,,0.00,Wunderground v.1.15,2013-01-03 02:05:00,
2013-01-02 21:10:00,63.9,63.0,30.07,NNE,23,0.0,0.0,97,0.00,,,0.00,Wunderground v.1.15,2013-01-03 02:10:00,
2013-01-02 21:15:00,64.1,63.5,30.07,NNE,23,0.0,0.0,98,0.00,,,0.00,Wunderground v.1.15,2013-01-03 02:15:00,
2013-01-02 21:16:00,64.2,63.6,30.07,NNE,23,0.0,0.0,98,0.00,,,0.00,Wunderground v.1.15,2013-01-03 02:16:00,
2013-01-02 21:20:00,64.5,63.9,30.07,NNE,22,0.0,0.0,98,0.00,,,0.00,Wunderground v.1.15,2013-01-03 02:20:00,
2013-01-02 21:21:00,64.5,63.9,30.07,NNE,22,0.0,0.0,98,0.00,,,0.00,Wunderground v.1.15,2013-01-03 02:21:00,
2013-01-02 21:25:00,64.6,64.0,30.07,NNE,22,0.0,0.0,98,0.00,,,0.00,Wunderground v.1.15,2013-01-03 02:25:00,
2013-01-02 21:26:00,64.5,63.9,30.07,NNE,22,0.0,0.0,98,0.00,,,0.00,Wunderground v.1.15,2013-01-03 02:26:00,
2013-01-02 21:30:00,64.7,64.1,30.07,NNE,22,0.0,0.0,98,0.00,,,0.00,Wunderground v.1.15,2013-01-03 02:30:00,
2013-01-02 21:31:00,64.8,64.2,30.07,NNE,22,0.0,0.0,98,0.00,,,0.00,Wunderground v.1.15,2013-01-03 02:31:00,
2013-01-02 21:35:00,64.7,64.1,30.07,NNE,22,0.0,0.0,98,0.00,,,0.00,Wunderground v.1.15,2013-01-03 02:35:00,
2013-01-02 21:36:00,64.7,64.1,30.07,NNE,22,0.0,0.0,98,0.00,,,0.00,Wunderground v.1.15,2013-01-03 02:36:00,
2013-01-02 21:40:00,64.7,64.1,30.07,NNE,22,0.0,0.0,98,0.00,,,0.00,Wunderground v.1.15,2013-01-03 02:40:00,
2013-01-02 21:41:00,64.7,64.1,30.07,NNE,22,0.0,0.0,98,0.00,,,0.00,Wunderground v.1.15,2013-01-03 02:41:00,
2013-01-02 21:45:00,64.7,64.1,30.07,NNE,22,0.0,0.0,98,0.00,,,0.00,Wunderground v.1.15,2013-01-03 02:45:00,
2013-01-02 21:46:00,64.7,64.1,30.07,NNE,22,0.0,0.0,98,0.00,,,0.00,Wunderground v.1.15,2013-01-03 02:46:00,
2013-01-02 21:47:00,64.6,64.0,30.07,NNE,22,0.0,0.0,98,0.00,,,0.00,Wunderground v.1.15,2013-01-03 02:47:00,
2013-01-02 21:51:00,64.5,63.9,30.07,NNE,22,0.0,0.0,98,0.00,,,0.00,Wunderground v.1.15,2013-01-03 02:51:00,
2013-01-02 21:52:00,64.5,63.9,30.07,NNE,22,0.0,0.0,98,0.00,,,0.00,Wunderground v.1.15,2013-01-03 02:52:00,
2013-01-02 21:56:00,64.5,63.9,30.07,NNE,22,0.0,0.0,98,0.00,,,0.00,Wunderground v.1.15,2013-01-03 02:56:00,
2013-01-02 21:57:00,64.4,63.8,30.07,NNE,22,0.0,0.0,98,0.00,,,0.00,Wunderground v.1.15,2013-01-03 02:57:00,
2013-01-02 22:01:00,64.5,63.9,30.07,NNE,22,0.0,0.0,98,0.00,,,0.00,Wunderground v.1.15,2013-01-03 03:01:00,
2013-01-02 22:02:00,64.5,63.9,30.07,NNE,22,0.0,0.0,98,0.00,,,0.00,Wunderground v.1.15,2013-01-03 03:02:00,
2013-01-02 22:06:00,64.5,63.9,30.07,NNE,22,0.0,0.0,98,0.00,,,0.00,Wunderground v.1.15,2013-01-03 03:06:00,
2013-01-02 22:07:00,64.6,64.0,30.07,NNE,22,0.0,0.0,98,0.00,,,0.00,Wunderground v.1.15,2013-01-03 03:07:00,
2013-01-02 22:11:00,64.6,64.0,30.07,NNE,22,0.0,0.0,98,0.00,,,0.00,Wunderground v.1.15,2013-01-03 03:11:00,
2013-01-02 22:12:00,64.6,64.0,30.07,NNE,22,0.0,0.0,98,0.00,,,0.00,Wunderground v.1.15,2013-01-03 03:12:00,
2013-01-02 22:13:00,64.6,64.0,30.07,NNE,22,0.0,0.0,98,0.00,,,0.00,Wunderground v.1.15,2013-01-03 03:13:00,
2013-01-02 22:16:00,64.5,63.9,30.07,NNE,22,0.0,0.0,98,0.00,,,0.00,Wunderground v.1.15,2013-01-03 03:16:00,
2013-01-02 22:17:00,64.5,63.9,30.07,NNE,22,0.0,0.0,98,0.00,,,0.00,Wunderground v.1.15,2013-01-03 03:17:00,
2013-01-02 22:18:00,64.5,63.9,30.07,NNE,22,0.0,0.0,98,0.00,,,0.00,Wunderground v.1.15,2013-01-03 03:18:00,
2013-01-02 22:21:00,64.5,63.9,30.07,NNE,22,0.0,0.0,98,0.00,,,0.00,Wunderground v.1.15,2013-01-03 03:21:00,
2013-01-02 22:22:00,64.4,63.8,30.07,NNE,22,0.0,0.0,98,0.00,,,0.00,Wunderground v.1.15,2013-01-03 03:22:00,
2013-01-02 22:23:00,64.4,63.8,30.07,NNE,22,0.0,0.0,98,0.00,,,0.00,Wunderground v.1.15,2013-01-03 03:23:00,
2013-01-02 22:26:00,64.3,63.7,30.07,NNE,22,0.0,0.0,98,0.00,,,0.00,Wunderground v.1.15,2013-01-03 03:26:00,
2013-01-02 22:27:00,64.3,63.7,30.07,NNE,22,0.0,0.0,98,0.00,,,0.00,Wunderground v.1.15,2013-01-03 03:27:00,
2013-01-02 22:28:00,64.3,63.7,30.07,NNE,22,0.0,0.0,98,0.00,,,0.00,Wunderground v.1.15,2013-01-03 03:28:00,
2013-01-02 22:29:00,64.3,63.7,30.07,NNE,22,0.0,0.0,98,0.00,,,0.00,Wunderground v.1.15,2013-01-03 03:29:00,
2013-01-02 22:31:00,64.3,63.7,30.07,NNE,22,0.0,0.0,98,0.00,,,0.00,Wunderground v.1.15,2013-01-03 03:31:00,
2013-01-02 22:32:00,64.3,63.7,30.07,NNE,22,0.0,0.0,98,0.00,,,0.00,Wunderground v.1.15,2013-01-03 03:32:00,
2013-01-02 22:33:00,64.3,63.7,30.07,NNE,22,0.0,0.0,98,0.00,,,0.00,Wunderground v.1.15,2013-01-03 03:33:00,
2013-01-02 22:34:00,64.3,63.7,30.07,NNE,22,0.0,0.0,98,0.00,,,0.00,Wunderground v.1.15,2013-01-03 03:34:00,
2013-01-02 22:38:00,64.3,63.7,30.07,NNE,22,0.0,0.0,98,0.00,,,0.00,Wunderground v.1.15,2013-01-03 03:38:00,
2013-01-02 22:39:00,64.2,63.6,30.07,NNE,22,0.0,0.0,98,0.00,,,0.00,Wunderground v.1.15,2013-01-03 03:39:00,
2013-01-02 22:40:00,64.2,63.6,30.07,NNE,22,0.0,0.0,98,0.00,,,0.00,Wunderground v.1.15,2013-01-03 03:40:00,
2013-01-02 22:44:00,64.1,63.5,30.07,NNE,22,0.0,0.0,98,0.00,,,0.00,Wunderground v.1.15,2013-01-03 03:44:00,
2013-01-02 22:45:00,64.1,63.5,30.07,NNE,22,0.0,0.0,98,0.00,,,0.00,Wunderground v.1.15,2013-01-03 03:45:00,
2013-01-02 22:49:00,64.1,63.5,30.07,NNE,22,0.0,0.0,98,0.00,,,0.00,Wunderground v.1.15,2013-01-03 03:49:00,
2013-01-02 22:50:00,64.1,63.5,30.07,NNE,22,0.0,0.0,98,0.00,,,0.00,Wunderground v.1.15,2013-01-03 03:50:00,
2013-01-02 22:51:00,64.1,63.5,30.07,NNE,22,0.0,0.0,98,0.00,,,0.00,Wunderground v.1.15,2013-01-03 03:51:00,
2013-01-02 22:54:00,64.0,63.4,30.07,NNE,22,0.0,0.0,98,0.00,,,0.00,Wunderground v.1.15,2013-01-03 03:54:00,
2013-01-02 22:55:00,64.0,63.4,30.07,NNE,22,0.0,0.0,98,0.00,,,0.00,Wunderground v.1.15,2013-01-03 03:55:00,
2013-01-02 22:56:00,63.9,63.3,30.07,NNE,22,0.0,0.0,98,0.00,,,0.00,Wunderground v.1.15,2013-01-03 03:56:00,
2013-01-02 22:59:00,63.8,63.2,30.07,NNE,22,0.0,0.0,98,0.00,,,0.00,Wunderground v.1.15,2013-01-03 03:59:00,
2013-01-02 23:01:00,63.8,63.2,30.07,NNE,22,0.0,0.0,98,0.00,,,0.00,Wunderground v.1.15,2013-01-03 04:01:00,
2013-01-02 23:04:00,63.7,63.1,30.07,NNE,22,0.0,0.0,98,0.00,,,0.00,Wunderground v.1.15,2013-01-03 04:04:00,
2013-01-02 23:06:00,63.7,63.1,30.07,NNE,22,0.0,0.0,98,0.00,,,0.00,Wunderground v.1.15,2013-01-03 04:06:00,
2013-01-02 23:09:00,63.8,63.2,30.07,NNE,22,0.0,0.0,98,0.00,,,0.00,Wunderground v.1.15,2013-01-03 04:09:00,
2013-01-02 23:10:00,63.8,63.2,30.07,NNE,22,0.0,0.0,98,0.00,,,0.00,Wunderground v.1.15,2013-01-03 04:10:00,
2013-01-02 23:11:00,63.7,63.1,30.07,NNE,22,0.0,0.0,98,0.00,,,0.00,Wunderground v.1.15,2013-01-03 04:11:00,
2013-01-02 23:14:00,63.6,63.0,30.07,NNE,22,0.0,0.0,98,0.00,,,0.00,Wunderground v.1.15,2013-01-03 04:14:00,
2013-01-02 23:15:00,63.6,63.0,30.07,NNE,22,0.0,0.0,98,0.00,,,0.00,Wunderground v.1.15,2013-01-03 04:15:00,
2013-01-02 23:16:00,63.5,62.9,30.07,NNE,22,0.0,0.0,98,0.00,,,0.00,Wunderground v.1.15,2013-01-03 04:16:00,
2013-01-02 23:17:00,63.5,62.9,30.07,NNE,22,0.0,0.0,98,0.00,,,0.00,Wunderground v.1.15,2013-01-03 04:17:00,
2013-01-02 23:19:00,63.4,62.8,30.07,NNE,22,0.0,0.0,98,0.00,,,0.00,Wunderground v.1.15,2013-01-03 04:19:00,
2013-01-02 23:20:00,63.4,62.8,30.07,NNE,22,0.0,0.0,98,0.00,,,0.00,Wunderground v.1.15,2013-01-03 04:20:00,
2013-01-02 23:21:00,63.3,62.7,30.07,NNE,22,0.0,0.0,98,0.00,,,0.00,Wunderground v.1.15,2013-01-03 04:21:00,
2013-01-02 23:22:00,63.3,62.7,30.07,NNE,22,0.0,0.0,98,0.00,,,0.00,Wunderground v.1.15,2013-01-03 04:22:00,
2013-01-02 23:24:00,63.3,62.7,30.07,NNE,22,0.0,0.0,98,0.00,,,0.00,Wunderground v.1.15,2013-01-03 04:24:00,
2013-01-02 23:25:00,63.3,62.7,30.07,NNE,22,0.0,0.0,98,0.00,,,0.00,Wunderground v.1.15,2013-01-03 04:25:00,
2013-01-02 23:26:00,63.3,62.7,30.07,NNE,22,0.0,0.0,98,0.00,,,0.00,Wunderground v.1.15,2013-01-03 04:26:00,
2013-01-02 23:27:00,63.3,62.7,30.07,NNE,22,0.0,0.0,98,0.00,,,0.00,Wunderground v.1.15,2013-01-03 04:27:00,
2013-01-02 23:29:00,63.3,62.7,30.07,NNE,22,0.0,0.0,98,0.00,,,0.00,Wunderground v.1.15,2013-01-03 04:29:00,
2013-01-02 23:30:00,63.2,62.6,30.07,NNE,22,0.0,0.0,98,0.00,,,0.00,Wunderground v.1.15,2013-01-03 04:30:00,
2013-01-02 23:32:00,63.2,62.6,30.06,NNE,22,0.0,0.0,98,0.00,,,0.00,Wunderground v.1.15,2013-01-03 04:32:00,
2013-01-02 23:34:00,63.2,62.6,30.06,NNE,22,0.0,0.0,98,0.00,,,0.00,Wunderground v.1.15,2013-01-03 04:34:00,
2013-01-02 23:35:00,63.2,62.6,30.06,NNE,22,0.0,0.0,98,0.00,,,0.00,Wunderground v.1.15,2013-01-03 04:35:00,
2013-01-02 23:37:00,63.0,62.4,30.06,NNE,22,0.0,0.0,98,0.00,,,0.00,Wunderground v.1.15,2013-01-03 04:37:00,
2013-01-02 23:39:00,63.0,62.4,30.06,NNE,22,0.0,0.0,98,0.00,,,0.00,Wunderground v.1.15,2013-01-03 04:39:00,
2013-01-02 23:40:00,62.9,62.3,30.06,NNE,22,0.0,0.0,98,0.00,,,0.00,Wunderground v.1.15,2013-01-03 04:40:00,
2013-01-02 23:42:00,62.9,62.3,30.06,NNE,22,0.0,0.0,98,0.00,,,0.00,Wunderground v.1.15,2013-01-03 04:42:00,
2013-01-02 23:44:00,63.0,62.4,30.06,NNE,22,0.0,0.0,98,0.00,,,0.00,Wunderground v.1.15,2013-01-03 04:44:00,
2013-01-02 23:45:00,63.0,62.4,30.06,NNE,22,0.0,0.0,98,0.00,,,0.00,Wunderground v.1.15,2013-01-03 04:45:00,
2013-01-02 23:47:00,63.0,62.4,30.06,NNE,22,0.0,0.0,98,0.00,,,0.00,Wunderground v.1.15,2013-01-03 04:47:00,
2013-01-02 23:48:00,63.0,62.4,30.06,NNE,22,0.0,0.0,98,0.00,,,0.00,Wunderground v.1.15,2013-01-03 04:48:00,
2013-01-02 23:49:00,63.0,62.4,30.06,NNE,22,0.0,0.0,98,0.00,,,0.00,Wunderground v.1.15,2013-01-03 04:49:00,
2013-01-02 23:50:00,63.0,62.4,30.06,NNE,22,0.0,0.0,98,0.00,,,0.00,Wunderground v.1.15,2013-01-03 04:50:00,
2013-01-02 23:52:00,63.1,62.5,30.06,NNE,22,0.0,0.0,98,0.00,,,0.00,Wunderground v.1.15,2013-01-03 04:52:00,
2013-01-02 23:53:00,63.1,62.5,30.06,NNE,22,0.0,0.0,98,0.00,,,0.00,Wunderground v.1.15,2013-01-03 04:53:00,
2013-01-02 23:55:00,63.2,62.6,30.06,NNE,22,0.0,0.0,98,0.00,,,0.00,Wunderground v.1.15,2013-01-03 04:55:00,
2013-01-02 23:58:00,63.2,62.6,30.06,NNE,22,0.0,0.0,98,0.00,,,0.00,Wunderground v.1.15,2013-01-03 04:58:00,